Time,TemperatureF,DewpointF,PressureIn,WindDirection,WindDirectionDegrees,WindSpeedMPH,WindSpeedGustMPH,Humidity,HourlyPrecipIn,Conditions,Clouds,dailyrainin,SoftwareType,DateUTC
2013-03-15 00:00:00,29.0,24.5,29.91,SW,219,2.0,2.0,83,0.00,,OVC021,0.00,VWS V12.07,2013-03-15 05:00:00,
2013-03-15 00:03:00,29.0,24.5,29.92,SW,230,2.0,3.0,83,0.00,,OVC019,0.00,VWS V12.07,2013-03-15 05:03:00,
2013-03-15 00:04:00,29.0,24.5,29.92,SW,230,0.0,3.0,83,0.00,,OVC019,0.00,VWS V12.07,2013-03-15 05:04:00,
2013-03-15 00:05:00,29.0,24.5,29.92,WSW,244,2.0,3.0,83,0.00,,OVC019,0.00,VWS V12.07,2013-03-15 05:05:00,
2013-03-15 00:08:00,29.0,24.5,29.92,WSW,248,1.0,3.0,83,0.00,,OVC019,0.00,VWS V12.07,2013-03-15 05:08:00,
2013-03-15 00:09:00,29.0,24.5,29.92,WSW,248,0.0,2.0,83,0.00,,OVC019,0.00,VWS V12.07,2013-03-15 05:09:00,
2013-03-15 00:10:00,29.0,24.5,29.92,WSW,248,0.0,2.0,83,0.00,,OVC019,0.00,VWS V12.07,2013-03-15 05:10:00,
2013-03-15 00:13:00,29.0,24.5,29.92,WSW,248,0.0,2.0,83,0.00,,OVC019,0.00,VWS V12.07,2013-03-15 05:13:00,
2013-03-15 00:15:00,29.0,24.5,29.92,WSW,248,0.0,2.0,83,0.00,,OVC019,0.00,VWS V12.07,2013-03-15 05:15:00,
2013-03-15 00:16:00,29.0,24.5,29.92,WSW,248,1.0,2.0,83,0.00,,OVC019,0.00,VWS V12.07,2013-03-15 05:16:00,
2013-03-15 00:19:00,29.0,24.5,29.92,WSW,248,1.0,2.0,83,0.00,,OVC019,0.00,VWS V12.07,2013-03-15 05:19:00,
2013-03-15 00:20:00,29.0,24.5,29.92,WSW,248,0.0,2.0,83,0.00,,OVC019,0.00,VWS V12.07,2013-03-15 05:20:00,
2013-03-15 00:22:00,29.0,24.5,29.92,WSW,248,1.0,2.0,83,0.00,,OVC019,0.00,VWS V12.07,2013-03-15 05:22:00,
2013-03-15 00:24:00,29.0,24.5,29.92,WSW,245,1.0,2.0,83,0.00,,OVC019,0.00,VWS V12.07,2013-03-15 05:24:00,
2013-03-15 00:25:00,29.0,24.5,29.92,SW,232,2.0,3.0,83,0.00,,OVC019,0.00,VWS V12.07,2013-03-15 05:25:00,
2013-03-15 00:27:00,29.0,24.5,29.92,SW,234,1.0,3.0,83,0.00,,OVC019,0.00,VWS V12.07,2013-03-15 05:27:00,
2013-03-15 00:29:00,29.0,24.5,29.92,SW,234,0.0,3.0,83,0.00,,OVC019,0.00,VWS V12.07,2013-03-15 05:29:00,
2013-03-15 00:30:00,29.0,24.5,29.92,SW,234,1.0,3.0,83,0.00,,OVC019,0.00,VWS V12.07,2013-03-15 05:30:00,
2013-03-15 00:31:00,29.0,24.5,29.92,WSW,238,3.0,3.0,83,0.00,,OVC019,0.00,VWS V12.07,2013-03-15 05:31:00,
2013-03-15 00:32:00,29.0,24.5,29.92,WSW,240,0.0,5.0,83,0.00,,OVC019,0.00,VWS V12.07,2013-03-15 05:32:00,
2013-03-15 00:34:00,29.0,24.5,29.92,SSW,207,3.0,5.0,83,0.00,,OVC019,0.00,VWS V12.07,2013-03-15 05:34:00,
2013-03-15 00:35:00,29.0,24.2,29.92,SSW,207,0.0,5.0,82,0.00,,OVC021,0.00,VWS V12.07,2013-03-15 05:35:00,
2013-03-15 00:37:00,29.0,24.2,29.92,SSW,207,0.0,5.0,82,0.00,,OVC021,0.00,VWS V12.07,2013-03-15 05:37:00,
2013-03-15 00:38:00,29.0,24.2,29.92,SSW,207,1.0,5.0,82,0.00,,OVC021,0.00,VWS V12.07,2013-03-15 05:38:00,
2013-03-15 00:39:00,29.0,24.2,29.92,SSW,207,1.0,2.0,82,0.00,,OVC021,0.00,VWS V12.07,2013-03-15 05:39:00,
2013-03-15 00:40:00,29.0,24.5,29.92,SW,219,0.0,2.0,83,0.00,,OVC021,0.00,VWS V12.07,2013-03-15 05:40:00,
2013-03-15 00:43:00,29.0,24.5,29.92,SW,219,0.0,2.0,83,0.00,,OVC021,0.00,VWS V12.07,2013-03-15 05:43:00,
2013-03-15 00:44:00,29.0,24.5,29.92,SW,219,0.0,2.0,83,0.00,,OVC021,0.00,VWS V12.07,2013-03-15 05:44:00,
2013-03-15 00:46:00,29.0,24.5,29.91,SW,219,0.0,3.0,83,0.00,,OVC021,0.00,VWS V12.07,2013-03-15 05:46:00,
2013-03-15 00:48:00,29.0,24.5,29.91,SW,219,2.0,3.0,83,0.00,,OVC021,0.00,VWS V12.07,2013-03-15 05:48:00,
2013-03-15 00:49:00,29.0,24.5,29.91,SW,219,2.0,3.0,83,0.00,,OVC021,0.00,VWS V12.07,2013-03-15 05:49:00,
2013-03-15 00:50:00,29.0,24.5,29.91,SW,228,2.0,3.0,83,0.00,,OVC021,0.00,VWS V12.07,2013-03-15 05:50:00,
2013-03-15 00:52:00,29.0,24.5,29.91,SW,228,1.0,3.0,83,0.00,,OVC021,0.00,VWS V12.07,2013-03-15 05:52:00,
2013-03-15 00:53:00,29.0,24.5,29.91,SW,228,1.0,3.0,83,0.00,,OVC021,0.00,VWS V12.07,2013-03-15 05:53:00,
2013-03-15 00:54:00,29.0,24.5,29.91,SW,228,0.0,3.0,83,0.00,,OVC021,0.00,VWS V12.07,2013-03-15 05:54:00,
2013-03-15 00:55:00,29.0,24.5,29.91,SW,228,1.0,3.0,83,0.00,,OVC021,0.00,VWS V12.07,2013-03-15 05:55:00,
2013-03-15 00:57:00,29.0,24.5,29.91,SW,228,1.0,3.0,83,0.00,,OVC021,0.00,VWS V12.07,2013-03-15 05:57:00,
2013-03-15 00:58:00,29.0,24.5,29.91,SW,228,1.0,2.0,83,0.00,,OVC021,0.00,VWS V12.07,2013-03-15 05:58:00,
2013-03-15 00:59:00,29.0,24.5,29.91,SSW,198,1.0,3.0,83,0.00,,OVC021,0.00,VWS V12.07,2013-03-15 05:59:00,
2013-03-15 01:00:00,29.0,24.5,29.91,SSW,198,0.0,3.0,83,0.00,,OVC021,0.00,VWS V12.07,2013-03-15 06:00:00,
2013-03-15 01:03:00,29.0,24.5,29.91,SSW,198,0.0,3.0,83,0.00,,OVC021,0.00,VWS V12.07,2013-03-15 06:03:00,
2013-03-15 01:04:00,29.0,24.5,29.91,SSW,198,1.0,3.0,83,0.00,,OVC021,0.00,VWS V12.07,2013-03-15 06:04:00,
2013-03-15 01:06:00,29.0,24.5,29.91,SSW,198,0.0,3.0,83,0.00,,OVC021,0.00,VWS V12.07,2013-03-15 06:06:00,
2013-03-15 01:08:00,29.0,24.5,29.91,SSW,198,0.0,3.0,83,0.00,,OVC021,0.00,VWS V12.07,2013-03-15 06:08:00,
2013-03-15 01:09:00,28.8,24.3,29.91,SSW,198,1.0,2.0,83,0.00,,OVC021,0.00,VWS V12.07,2013-03-15 06:09:00,
2013-03-15 01:10:00,29.0,24.5,29.89,East,88,0.0,1.0,83,0.00,,OVC019,0.00,VWS V12.07,2013-03-15 06:10:00,
2013-03-15 01:11:00,29.0,24.5,29.91,SSW,198,0.0,2.0,83,0.00,,OVC021,0.00,VWS V12.07,2013-03-15 06:11:00,
2013-03-15 01:13:00,29.0,24.5,29.91,SSW,203,1.0,2.0,83,0.00,,OVC021,0.00,VWS V12.07,2013-03-15 06:13:00,
2013-03-15 01:14:00,29.0,24.5,29.91,SSW,203,0.0,2.0,83,0.00,,OVC021,0.00,VWS V12.07,2013-03-15 06:14:00,
2013-03-15 01:16:00,29.0,24.5,29.89,SSW,203,2.0,2.0,83,0.00,,OVC021,0.00,VWS V12.07,2013-03-15 06:16:00,
2013-03-15 01:18:00,29.0,24.5,29.89,SSW,203,0.0,0.0,83,0.00,,OVC021,0.00,VWS V12.07,2013-03-15 06:18:00,
2013-03-15 01:19:00,29.0,24.5,29.89,SSW,203,0.0,2.0,83,0.00,,OVC021,0.00,VWS V12.07,2013-03-15 06:19:00,
2013-03-15 01:20:00,29.0,24.5,29.89,SSW,193,1.0,2.0,83,0.00,,OVC019,0.00,VWS V12.07,2013-03-15 06:20:00,
2013-03-15 01:21:00,29.0,24.5,29.89,SSW,203,0.0,2.0,83,0.00,,OVC021,0.00,VWS V12.07,2013-03-15 06:21:00,
2013-03-15 01:22:00,29.0,24.5,29.89,SSW,203,1.0,2.0,83,0.00,,OVC021,0.00,VWS V12.07,2013-03-15 06:22:00,
2013-03-15 01:24:00,29.0,24.5,29.89,SSW,203,0.0,2.0,83,0.00,,OVC021,0.00,VWS V12.07,2013-03-15 06:24:00,
2013-03-15 01:26:00,29.0,24.5,29.89,SSW,203,0.0,2.0,83,0.00,,OVC021,0.00,VWS V12.07,2013-03-15 06:26:00,
2013-03-15 01:27:00,29.0,24.5,29.89,SSW,203,0.0,2.0,83,0.00,,OVC021,0.00,VWS V12.07,2013-03-15 06:27:00,
2013-03-15 01:29:00,29.0,24.5,29.89,SSW,203,0.0,2.0,83,0.00,,OVC021,0.00,VWS V12.07,2013-03-15 06:29:00,
2013-03-15 01:30:00,29.1,24.6,29.89,SSW,193,0.0,2.0,83,0.00,,OVC019,0.00,VWS V12.07,2013-03-15 06:30:00,
2013-03-15 01:32:00,29.0,24.5,29.89,SSW,203,0.0,2.0,83,0.00,,OVC021,0.00,VWS V12.07,2013-03-15 06:32:00,
2013-03-15 01:34:00,29.0,24.5,29.89,SSW,203,1.0,2.0,83,0.00,,OVC023,0.00,VWS V12.07,2013-03-15 06:34:00,
2013-03-15 01:37:00,29.0,24.5,29.89,SSW,203,0.0,2.0,83,0.00,,OVC023,0.00,VWS V12.07,2013-03-15 06:37:00,
2013-03-15 01:39:00,29.0,24.5,29.89,East,88,0.0,2.0,83,0.00,,OVC023,0.00,VWS V12.07,2013-03-15 06:39:00,
2013-03-15 01:40:00,29.0,24.5,29.89,East,88,0.0,2.0,83,0.00,,OVC023,0.00,VWS V12.07,2013-03-15 06:40:00,
2013-03-15 01:42:00,29.0,24.5,29.89,East,88,0.0,2.0,83,0.00,,OVC023,0.00,VWS V12.07,2013-03-15 06:42:00,
2013-03-15 01:44:00,29.0,24.5,29.89,East,88,0.0,2.0,83,0.00,,OVC023,0.00,VWS V12.07,2013-03-15 06:44:00,
2013-03-15 01:45:00,29.0,24.5,29.89,East,88,0.0,2.0,83,0.00,,OVC023,0.00,VWS V12.07,2013-03-15 06:45:00,
2013-03-15 01:47:00,29.0,24.5,29.89,East,88,0.0,2.0,83,0.00,,OVC023,0.00,VWS V12.07,2013-03-15 06:47:00,
2013-03-15 01:48:00,29.0,24.5,29.89,East,88,0.0,2.0,83,0.00,,OVC023,0.00,VWS V12.07,2013-03-15 06:48:00,
2013-03-15 01:50:00,29.0,24.5,29.89,East,88,0.0,1.0,83,0.00,,OVC023,0.00,VWS V12.07,2013-03-15 06:50:00,
2013-03-15 01:53:00,29.0,24.5,29.89,East,88,0.0,1.0,83,0.00,,OVC019,0.00,VWS V12.07,2013-03-15 06:53:00,
2013-03-15 01:55:00,29.0,24.5,29.89,East,88,0.0,1.0,83,0.00,,OVC019,0.00,VWS V12.07,2013-03-15 06:55:00,
2013-03-15 01:58:00,29.0,24.5,29.89,East,88,1.0,1.0,83,0.00,,OVC019,0.00,VWS V12.07,2013-03-15 06:58:00,
2013-03-15 02:00:00,29.1,24.6,29.87,SSW,193,0.0,0.0,83,0.00,,OVC019,0.00,VWS V12.07,2013-03-15 07:00:00,
2013-03-15 02:01:00,29.0,24.5,29.89,East,88,0.0,1.0,83,0.00,,OVC019,0.00,VWS V12.07,2013-03-15 07:01:00,
2013-03-15 02:02:00,29.0,24.5,29.89,East,88,0.0,1.0,83,0.00,,OVC019,0.00,VWS V12.07,2013-03-15 07:02:00,
2013-03-15 02:03:00,29.0,24.5,29.89,East,88,1.0,2.0,83,0.00,,OVC019,0.00,VWS V12.07,2013-03-15 07:03:00,
2013-03-15 02:04:00,29.0,24.5,29.89,East,88,0.0,2.0,83,0.00,,OVC019,0.00,VWS V12.07,2013-03-15 07:04:00,
2013-03-15 02:06:00,29.0,24.5,29.89,SSW,193,0.0,2.0,83,0.00,,OVC019,0.00,VWS V12.07,2013-03-15 07:06:00,
2013-03-15 02:07:00,29.0,24.5,29.89,SSW,193,0.0,2.0,83,0.00,,OVC019,0.00,VWS V12.07,2013-03-15 07:07:00,
2013-03-15 02:08:00,29.1,24.6,29.89,SSW,193,0.0,2.0,83,0.00,,OVC019,0.00,VWS V12.07,2013-03-15 07:08:00,
2013-03-15 02:09:00,29.1,24.6,29.89,SSW,193,0.0,2.0,83,0.00,,OVC019,0.00,VWS V12.07,2013-03-15 07:09:00,
2013-03-15 02:10:00,29.1,24.6,29.87,SSW,193,0.0,1.0,83,0.00,,OVC019,0.00,VWS V12.07,2013-03-15 07:10:00,
2013-03-15 02:11:00,29.1,24.6,29.89,SSW,193,0.0,2.0,83,0.00,,OVC019,0.00,VWS V12.07,2013-03-15 07:11:00,
2013-03-15 02:12:00,29.1,24.6,29.89,SSW,193,0.0,2.0,83,0.00,,OVC019,0.00,VWS V12.07,2013-03-15 07:12:00,
2013-03-15 02:14:00,29.1,24.6,29.89,SSW,193,0.0,2.0,83,0.00,,OVC019,0.00,VWS V12.07,2013-03-15 07:14:00,
2013-03-15 02:15:00,29.1,24.6,29.89,SSW,193,0.0,2.0,83,0.00,,OVC019,0.00,VWS V12.07,2013-03-15 07:15:00,
2013-03-15 02:17:00,29.1,24.6,29.89,SSW,193,0.0,2.0,83,0.00,,OVC019,0.00,VWS V12.07,2013-03-15 07:17:00,
2013-03-15 02:18:00,29.0,24.5,29.89,SSW,193,0.0,2.0,83,0.00,,OVC019,0.00,VWS V12.07,2013-03-15 07:18:00,
2013-03-15 02:19:00,29.0,24.5,29.89,SSW,193,0.0,0.0,83,0.00,,OVC019,0.00,VWS V12.07,2013-03-15 07:19:00,
2013-03-15 02:20:00,29.0,24.5,29.89,SSW,193,0.0,0.0,83,0.00,,OVC019,0.00,VWS V12.07,2013-03-15 07:20:00,
2013-03-15 02:22:00,29.1,24.6,29.89,SSW,193,0.0,0.0,83,0.00,,OVC019,0.00,VWS V12.07,2013-03-15 07:22:00,
2013-03-15 02:23:00,29.1,24.6,29.89,SSW,193,0.0,0.0,83,0.00,,OVC019,0.00,VWS V12.07,2013-03-15 07:23:00,
2013-03-15 02:25:00,29.1,24.6,29.89,SSW,193,1.0,1.0,83,0.00,,OVC019,0.00,VWS V12.07,2013-03-15 07:25:00,
2013-03-15 02:27:00,29.1,24.6,29.89,SSW,193,0.0,1.0,83,0.00,,OVC019,0.00,VWS V12.07,2013-03-15 07:27:00,
2013-03-15 02:28:00,29.1,24.6,29.89,SSW,193,0.0,1.0,83,0.00,,OVC019,0.00,VWS V12.07,2013-03-15 07:28:00,
2013-03-15 02:30:00,29.1,24.6,29.88,SSW,193,0.0,1.0,83,0.00,,OVC019,0.00,VWS V12.07,2013-03-15 07:30:00,
2013-03-15 02:32:00,29.1,24.6,29.88,SSW,193,0.0,1.0,83,0.00,,OVC019,0.00,VWS V12.07,2013-03-15 07:32:00,
2013-03-15 02:33:00,29.1,24.6,29.88,SSW,193,0.0,1.0,83,0.00,,OVC019,0.00,VWS V12.07,2013-03-15 07:33:00,
2013-03-15 02:35:00,29.1,24.6,29.88,SSW,193,0.0,1.0,83,0.00,,OVC019,0.00,VWS V12.07,2013-03-15 07:35:00,
2013-03-15 02:38:00,29.1,24.6,29.88,SSW,193,0.0,1.0,83,0.00,,OVC019,0.00,VWS V12.07,2013-03-15 07:38:00,
2013-03-15 02:40:00,29.1,24.6,29.88,SSW,193,0.0,0.0,83,0.00,,OVC019,0.00,VWS V12.07,2013-03-15 07:40:00,
2013-03-15 02:41:00,29.1,24.6,29.88,SSW,193,0.0,0.0,83,0.00,,OVC019,0.00,VWS V12.07,2013-03-15 07:41:00,
2013-03-15 02:43:00,29.1,24.6,29.88,SSW,193,0.0,0.0,83,0.00,,OVC019,0.00,VWS V12.07,2013-03-15 07:43:00,
2013-03-15 02:44:00,29.1,24.6,29.87,SSW,193,0.0,0.0,83,0.00,,OVC019,0.00,VWS V12.07,2013-03-15 07:44:00,
2013-03-15 02:46:00,29.1,24.6,29.87,SSW,193,0.0,0.0,83,0.00,,OVC019,0.00,VWS V12.07,2013-03-15 07:46:00,
2013-03-15 02:48:00,29.1,24.6,29.87,SSW,193,0.0,1.0,83,0.00,,OVC019,0.00,VWS V12.07,2013-03-15 07:48:00,
2013-03-15 02:49:00,29.1,24.6,29.87,SSW,193,0.0,1.0,83,0.00,,OVC019,0.00,VWS V12.07,2013-03-15 07:49:00,
2013-03-15 02:50:00,29.3,24.8,29.86,NNE,13,0.0,1.0,83,0.00,,OVC021,0.00,VWS V12.07,2013-03-15 07:50:00,
2013-03-15 02:51:00,29.1,24.6,29.87,SSW,193,0.0,1.0,83,0.00,,OVC019,0.00,VWS V12.07,2013-03-15 07:51:00,
2013-03-15 02:52:00,29.1,24.6,29.87,SSW,193,0.0,1.0,83,0.00,,OVC019,0.00,VWS V12.07,2013-03-15 07:52:00,
2013-03-15 02:54:00,29.1,24.6,29.87,SSW,193,0.0,1.0,83,0.00,,OVC019,0.00,VWS V12.07,2013-03-15 07:54:00,
2013-03-15 02:55:00,29.1,24.6,29.87,SSW,193,0.0,1.0,83,0.00,,OVC019,0.00,VWS V12.07,2013-03-15 07:55:00,
2013-03-15 02:56:00,29.3,24.8,29.87,SSW,193,0.0,1.0,83,0.00,,OVC019,0.00,VWS V12.07,2013-03-15 07:56:00,
2013-03-15 02:57:00,29.3,24.8,29.87,SSW,193,0.0,1.0,83,0.00,,OVC019,0.00,VWS V12.07,2013-03-15 07:57:00,
2013-03-15 02:59:00,29.3,24.8,29.87,SSW,193,0.0,0.0,83,0.00,,OVC019,0.00,VWS V12.07,2013-03-15 07:59:00,
2013-03-15 03:00:00,29.3,24.8,29.87,SSW,193,1.0,1.0,83,0.00,,OVC019,0.00,VWS V12.07,2013-03-15 08:00:00,
2013-03-15 03:01:00,29.3,24.8,29.87,SSW,193,0.0,1.0,83,0.00,,OVC019,0.00,VWS V12.07,2013-03-15 08:01:00,
2013-03-15 03:02:00,29.3,24.8,29.87,SSW,193,0.0,1.0,83,0.00,,OVC019,0.00,VWS V12.07,2013-03-15 08:02:00,
2013-03-15 03:04:00,29.3,24.8,29.87,NNE,13,0.0,2.0,83,0.00,,OVC019,0.00,VWS V12.07,2013-03-15 08:04:00,
2013-03-15 03:05:00,29.3,24.8,29.87,NNE,13,0.0,2.0,83,0.00,,OVC019,0.00,VWS V12.07,2013-03-15 08:05:00,
2013-03-15 03:07:00,29.3,24.8,29.87,NNE,13,0.0,2.0,83,0.00,,OVC019,0.00,VWS V12.07,2013-03-15 08:07:00,
2013-03-15 03:09:00,29.3,24.8,29.87,NNE,13,0.0,0.0,83,0.00,,OVC019,0.00,VWS V12.07,2013-03-15 08:09:00,
2013-03-15 03:10:00,29.3,24.8,29.87,NNE,13,0.0,0.0,83,0.00,,OVC019,0.00,VWS V12.07,2013-03-15 08:10:00,
2013-03-15 03:12:00,29.3,24.8,29.87,NNE,13,0.0,0.0,83,0.00,,OVC019,0.00,VWS V12.07,2013-03-15 08:12:00,
2013-03-15 03:14:00,29.3,24.8,29.87,NNE,13,0.0,0.0,83,0.00,,OVC019,0.00,VWS V12.07,2013-03-15 08:14:00,
2013-03-15 03:15:00,29.3,24.8,29.87,NNE,13,0.0,0.0,83,0.00,,OVC019,0.00,VWS V12.07,2013-03-15 08:15:00,
2013-03-15 03:17:00,29.3,24.8,29.87,NNE,13,0.0,0.0,83,0.00,,OVC019,0.00,VWS V12.07,2013-03-15 08:17:00,
2013-03-15 03:18:00,29.3,24.8,29.87,NNE,13,0.0,0.0,83,0.00,,OVC019,0.00,VWS V12.07,2013-03-15 08:18:00,
2013-03-15 03:19:00,29.3,24.8,29.87,NNE,13,0.0,0.0,83,0.00,,OVC019,0.00,VWS V12.07,2013-03-15 08:19:00,
2013-03-15 03:20:00,29.3,24.8,29.85,WNW,302,0.0,3.0,83,0.00,,OVC021,0.00,VWS V12.07,2013-03-15 08:20:00,
2013-03-15 03:21:00,29.4,24.9,29.87,NNE,13,0.0,0.0,83,0.00,,OVC019,0.00,VWS V12.07,2013-03-15 08:21:00,
2013-03-15 03:22:00,29.3,24.8,29.87,NNE,13,0.0,0.0,83,0.00,,OVC019,0.00,VWS V12.07,2013-03-15 08:22:00,
2013-03-15 03:23:00,29.3,24.8,29.87,NNE,13,0.0,0.0,83,0.00,,OVC019,0.00,VWS V12.07,2013-03-15 08:23:00,
2013-03-15 03:25:00,29.3,24.8,29.87,NNE,13,0.0,0.0,83,0.00,,OVC019,0.00,VWS V12.07,2013-03-15 08:25:00,
2013-03-15 03:27:00,29.3,24.8,29.87,NNE,13,0.0,0.0,83,0.00,,OVC019,0.00,VWS V12.07,2013-03-15 08:27:00,
2013-03-15 03:28:00,29.3,24.8,29.87,NNE,13,0.0,0.0,83,0.00,,OVC019,0.00,VWS V12.07,2013-03-15 08:28:00,
2013-03-15 03:30:00,29.3,24.8,29.86,NNE,13,0.0,1.0,83,0.00,,OVC019,0.00,VWS V12.07,2013-03-15 08:30:00,
2013-03-15 03:32:00,29.3,24.8,29.86,NNE,13,0.0,1.0,83,0.00,,OVC019,0.00,VWS V12.07,2013-03-15 08:32:00,
2013-03-15 03:33:00,29.3,24.8,29.86,NNE,13,0.0,1.0,83,0.00,,OVC019,0.00,VWS V12.07,2013-03-15 08:33:00,
2013-03-15 03:35:00,29.3,24.8,29.86,NNE,13,0.0,1.0,83,0.00,,OVC021,0.00,VWS V12.07,2013-03-15 08:35:00,
2013-03-15 03:37:00,29.3,24.8,29.86,NNE,13,0.0,1.0,83,0.00,,OVC021,0.00,VWS V12.07,2013-03-15 08:37:00,
2013-03-15 03:38:00,29.3,24.8,29.86,NNE,13,0.0,1.0,83,0.00,,OVC021,0.00,VWS V12.07,2013-03-15 08:38:00,
2013-03-15 03:40:00,29.1,24.6,29.85,WNW,302,0.0,1.0,83,0.00,,OVC021,0.00,VWS V12.07,2013-03-15 08:40:00,
2013-03-15 03:41:00,29.3,24.8,29.86,NNE,13,0.0,1.0,83,0.00,,OVC021,0.00,VWS V12.07,2013-03-15 08:41:00,
2013-03-15 03:42:00,29.3,24.8,29.86,NNE,13,0.0,1.0,83,0.00,,OVC021,0.00,VWS V12.07,2013-03-15 08:42:00,
2013-03-15 03:43:00,29.3,24.8,29.86,NNE,13,0.0,1.0,83,0.00,,OVC021,0.00,VWS V12.07,2013-03-15 08:43:00,
2013-03-15 03:44:00,29.3,24.8,29.86,NNE,13,0.0,1.0,83,0.00,,OVC021,0.00,VWS V12.07,2013-03-15 08:44:00,
2013-03-15 03:47:00,29.3,24.8,29.86,NNE,13,0.0,1.0,83,0.00,,OVC021,0.00,VWS V12.07,2013-03-15 08:47:00,
2013-03-15 03:48:00,29.3,24.8,29.86,NNE,13,0.0,1.0,83,0.00,,OVC021,0.00,VWS V12.07,2013-03-15 08:48:00,
2013-03-15 03:49:00,29.3,24.8,29.86,NNE,13,0.0,1.0,83,0.00,,OVC021,0.00,VWS V12.07,2013-03-15 08:49:00,
2013-03-15 03:50:00,29.1,24.9,29.84,WNW,302,0.0,2.0,84,0.00,,OVC016,0.00,VWS V12.07,2013-03-15 08:50:00,
2013-03-15 03:53:00,29.3,24.8,29.86,NNE,13,0.0,1.0,83,0.00,,OVC021,0.00,VWS V12.07,2013-03-15 08:53:00,
2013-03-15 03:54:00,29.3,24.8,29.86,NNE,13,0.0,1.0,83,0.00,,OVC021,0.00,VWS V12.07,2013-03-15 08:54:00,
2013-03-15 03:58:00,29.3,24.8,29.86,WNW,302,1.0,3.0,83,0.00,,OVC021,0.00,VWS V12.07,2013-03-15 08:58:00,
2013-03-15 03:59:00,29.3,24.8,29.86,WNW,302,0.0,3.0,83,0.00,,OVC021,0.00,VWS V12.07,2013-03-15 08:59:00,
2013-03-15 04:00:00,29.1,24.9,29.84,WNW,302,0.0,1.0,84,0.00,,OVC016,0.00,VWS V12.07,2013-03-15 09:00:00,
2013-03-15 04:03:00,29.3,24.8,29.85,WNW,302,0.0,3.0,83,0.00,,OVC021,0.00,VWS V12.07,2013-03-15 09:03:00,
2013-03-15 04:04:00,29.3,24.8,29.85,WNW,302,0.0,3.0,83,0.00,,OVC021,0.00,VWS V12.07,2013-03-15 09:04:00,
2013-03-15 04:08:00,29.3,24.8,29.85,WNW,302,0.0,3.0,83,0.00,,OVC021,0.00,VWS V12.07,2013-03-15 09:08:00,
2013-03-15 04:09:00,29.1,24.6,29.85,WNW,302,0.0,1.0,83,0.00,,OVC021,0.00,VWS V12.07,2013-03-15 09:09:00,
2013-03-15 04:10:00,29.1,24.6,29.85,WNW,302,0.0,1.0,83,0.00,,OVC021,0.00,VWS V12.07,2013-03-15 09:10:00,
2013-03-15 04:14:00,29.1,24.6,29.85,WNW,302,0.0,1.0,83,0.00,,OVC021,0.00,VWS V12.07,2013-03-15 09:14:00,
2013-03-15 04:15:00,29.1,24.6,29.85,WNW,302,0.0,1.0,83,0.00,,OVC021,0.00,VWS V12.07,2013-03-15 09:15:00,
2013-03-15 04:19:00,29.1,24.6,29.85,WNW,302,0.0,0.0,83,0.00,,OVC021,0.00,VWS V12.07,2013-03-15 09:19:00,
2013-03-15 04:20:00,29.1,24.6,29.85,WNW,302,0.0,1.0,83,0.00,,OVC021,0.00,VWS V12.07,2013-03-15 09:20:00,
2013-03-15 04:24:00,29.1,24.6,29.85,WNW,302,0.0,1.0,83,0.00,,OVC021,0.00,VWS V12.07,2013-03-15 09:24:00,
2013-03-15 04:25:00,29.1,24.6,29.85,WNW,302,0.0,1.0,83,0.00,,OVC021,0.00,VWS V12.07,2013-03-15 09:25:00,
2013-03-15 04:29:00,29.1,24.9,29.84,WNW,302,0.0,0.0,84,0.00,,OVC021,0.00,VWS V12.07,2013-03-15 09:29:00,
2013-03-15 04:30:00,29.1,24.9,29.84,WNW,302,0.0,0.0,84,0.00,,OVC021,0.00,VWS V12.07,2013-03-15 09:30:00,
2013-03-15 04:31:00,29.1,24.9,29.84,WNW,302,2.0,2.0,84,0.00,,OVC021,0.00,VWS V12.07,2013-03-15 09:31:00,
2013-03-15 04:35:00,29.1,24.9,29.84,WNW,302,0.0,2.0,84,0.00,,OVC016,0.00,VWS V12.07,2013-03-15 09:35:00,
2013-03-15 04:36:00,29.1,24.9,29.84,WNW,302,0.0,2.0,84,0.00,,OVC016,0.00,VWS V12.07,2013-03-15 09:36:00,
2013-03-15 04:40:00,29.1,24.9,29.84,WNW,302,0.0,0.0,84,0.00,,OVC016,0.00,VWS V12.07,2013-03-15 09:40:00,
2013-03-15 04:41:00,29.1,24.9,29.84,WNW,302,0.0,0.0,84,0.00,,OVC016,0.00,VWS V12.07,2013-03-15 09:41:00,
2013-03-15 04:45:00,29.1,24.9,29.84,WNW,302,0.0,1.0,84,0.00,,OVC016,0.00,VWS V12.07,2013-03-15 09:45:00,
2013-03-15 04:46:00,29.1,24.9,29.84,WNW,302,0.0,1.0,84,0.00,,OVC016,0.00,VWS V12.07,2013-03-15 09:46:00,
2013-03-15 04:47:00,29.1,24.9,29.84,WNW,302,1.0,1.0,84,0.00,,OVC016,0.00,VWS V12.07,2013-03-15 09:47:00,
2013-03-15 04:50:00,29.1,24.9,29.84,WNW,302,1.0,1.0,84,0.00,,OVC016,0.00,VWS V12.07,2013-03-15 09:50:00,
2013-03-15 04:51:00,29.1,24.9,29.84,WNW,302,0.0,1.0,84,0.00,,OVC016,0.00,VWS V12.07,2013-03-15 09:51:00,
2013-03-15 04:53:00,29.1,24.9,29.84,WNW,302,0.0,1.0,84,0.00,,OVC016,0.00,VWS V12.07,2013-03-15 09:53:00,
2013-03-15 04:55:00,29.1,24.9,29.84,WNW,302,0.0,1.0,84,0.00,,OVC016,0.00,VWS V12.07,2013-03-15 09:55:00,
2013-03-15 04:56:00,29.1,24.9,29.84,WNW,302,0.0,1.0,84,0.00,,OVC016,0.00,VWS V12.07,2013-03-15 09:56:00,
2013-03-15 04:58:00,29.1,24.9,29.84,WNW,302,0.0,1.0,84,0.00,,OVC016,0.00,VWS V12.07,2013-03-15 09:58:00,
2013-03-15 05:00:00,29.1,24.9,29.85,WNW,302,0.0,0.0,84,0.00,,OVC016,0.00,VWS V12.07,2013-03-15 10:00:00,
2013-03-15 05:01:00,29.1,24.9,29.85,West,278,3.0,3.0,84,0.00,,OVC016,0.00,VWS V12.07,2013-03-15 10:01:00,
2013-03-15 05:02:00,29.0,24.8,29.85,West,278,0.0,3.0,84,0.00,,OVC016,0.00,VWS V12.07,2013-03-15 10:02:00,
2013-03-15 05:04:00,29.0,24.8,29.85,West,278,0.0,3.0,84,0.00,,OVC016,0.00,VWS V12.07,2013-03-15 10:04:00,
2013-03-15 05:05:00,29.0,24.8,29.85,West,278,0.0,3.0,84,0.00,,OVC016,0.00,VWS V12.07,2013-03-15 10:05:00,
2013-03-15 05:06:00,29.0,24.8,29.85,West,278,0.0,3.0,84,0.00,,OVC016,0.00,VWS V12.07,2013-03-15 10:06:00,
2013-03-15 05:07:00,29.0,24.8,29.85,West,278,1.0,3.0,84,0.00,,OVC016,0.00,VWS V12.07,2013-03-15 10:07:00,
2013-03-15 05:09:00,29.0,24.8,29.85,West,278,0.0,2.0,84,0.00,,OVC016,0.00,VWS V12.07,2013-03-15 10:09:00,
2013-03-15 05:10:00,29.0,24.8,29.85,West,278,0.0,2.0,84,0.00,,OVC016,0.00,VWS V12.07,2013-03-15 10:10:00,
2013-03-15 05:11:00,29.0,24.8,29.85,West,278,0.0,2.0,84,0.00,,OVC016,0.00,VWS V12.07,2013-03-15 10:11:00,
2013-03-15 05:12:00,29.0,24.8,29.85,West,278,0.0,2.0,84,0.00,,OVC016,0.00,VWS V12.07,2013-03-15 10:12:00,
2013-03-15 05:14:00,29.0,24.8,29.85,West,278,0.0,2.0,84,0.00,,OVC016,0.00,VWS V12.07,2013-03-15 10:14:00,
2013-03-15 05:16:00,29.0,24.8,29.85,West,278,0.0,2.0,84,0.00,,OVC016,0.00,VWS V12.07,2013-03-15 10:16:00,
2013-03-15 05:19:00,29.0,24.8,29.85,NE,37,0.0,3.0,84,0.00,,OVC016,0.00,VWS V12.07,2013-03-15 10:19:00,
2013-03-15 05:20:00,28.8,25.1,29.86,North,0,0.0,5.0,86,0.00,,OVC012,0.00,VWS V12.07,2013-03-15 10:20:00,
2013-03-15 05:22:00,29.0,24.8,29.85,NE,37,0.0,3.0,84,0.00,,OVC016,0.00,VWS V12.07,2013-03-15 10:22:00,
2013-03-15 05:24:00,29.0,24.8,29.85,NNE,15,0.0,3.0,84,0.00,,OVC016,0.00,VWS V12.07,2013-03-15 10:24:00,
2013-03-15 05:27:00,29.0,24.8,29.85,NNE,15,0.0,3.0,84,0.00,,OVC016,0.00,VWS V12.07,2013-03-15 10:27:00,
2013-03-15 05:28:00,29.0,24.8,29.85,NNE,15,0.0,3.0,84,0.00,,OVC016,0.00,VWS V12.07,2013-03-15 10:28:00,
2013-03-15 05:29:00,29.0,24.8,29.85,NNE,15,0.0,1.0,84,0.00,,OVC016,0.00,VWS V12.07,2013-03-15 10:29:00,
2013-03-15 05:30:00,28.4,25.0,29.87,NNW,331,1.0,9.0,87,0.00,,OVC012,0.00,VWS V12.07,2013-03-15 10:30:00,
2013-03-15 05:32:00,29.0,24.8,29.86,NNE,15,0.0,1.0,84,0.00,,OVC016,0.00,VWS V12.07,2013-03-15 10:32:00,
2013-03-15 05:33:00,29.0,24.8,29.86,NNE,15,0.0,1.0,84,0.00,,OVC016,0.00,VWS V12.07,2013-03-15 10:33:00,
2013-03-15 05:34:00,29.0,24.8,29.86,NNE,15,0.0,1.0,84,0.00,,OVC014,0.00,VWS V12.07,2013-03-15 10:34:00,
2013-03-15 05:35:00,29.0,24.8,29.86,NNE,15,0.0,1.0,84,0.00,,OVC014,0.00,VWS V12.07,2013-03-15 10:35:00,
2013-03-15 05:37:00,29.0,25.1,29.86,NNE,15,0.0,1.0,85,0.00,,OVC014,0.00,VWS V12.07,2013-03-15 10:37:00,
2013-03-15 05:38:00,29.0,25.1,29.86,NNE,15,0.0,1.0,85,0.00,,OVC014,0.00,VWS V12.07,2013-03-15 10:38:00,
2013-03-15 05:39:00,29.0,25.1,29.86,NNE,15,0.0,2.0,85,0.00,,OVC014,0.00,VWS V12.07,2013-03-15 10:39:00,
2013-03-15 05:40:00,28.1,24.7,29.87,NNW,341,1.0,4.0,87,0.00,,OVC012,0.00,VWS V12.07,2013-03-15 10:40:00,
2013-03-15 05:42:00,29.0,25.1,29.86,NNW,334,3.0,6.0,85,0.00,,OVC014,0.00,VWS V12.07,2013-03-15 10:42:00,
2013-03-15 05:44:00,29.0,25.1,29.86,NNW,334,0.0,6.0,85,0.00,,OVC014,0.00,VWS V12.07,2013-03-15 10:44:00,
2013-03-15 05:45:00,29.0,25.1,29.86,NNW,334,1.0,6.0,85,0.00,,OVC014,0.00,VWS V12.07,2013-03-15 10:45:00,
2013-03-15 05:48:00,29.1,25.2,29.86,North,11,3.0,0.0,85,0.00,,OVC014,0.00,VWS V12.07,2013-03-15 10:48:00,
2013-03-15 05:49:00,29.1,25.4,29.86,North,353,1.0,4.0,86,0.00,,OVC014,0.00,VWS V12.07,2013-03-15 10:49:00,
2013-03-15 05:50:00,29.1,25.4,29.86,North,353,1.0,4.0,86,0.00,,OVC014,0.00,VWS V12.07,2013-03-15 10:50:00,
2013-03-15 05:53:00,29.0,25.4,29.86,North,358,0.0,4.0,86,0.00,,OVC012,0.00,VWS V12.07,2013-03-15 10:53:00,
2013-03-15 05:55:00,29.0,25.4,29.86,North,358,0.0,4.0,86,0.00,,OVC012,0.00,VWS V12.07,2013-03-15 10:55:00,
2013-03-15 05:59:00,29.0,25.4,29.86,North,349,1.0,4.0,86,0.00,,OVC012,0.00,VWS V12.07,2013-03-15 10:59:00,
2013-03-15 06:00:00,28.8,25.1,29.86,North,349,1.0,4.0,86,0.00,,OVC012,0.00,VWS V12.07,2013-03-15 11:00:00,
2013-03-15 06:04:00,28.8,25.1,29.86,NNW,335,0.0,4.0,86,0.00,,OVC012,0.00,VWS V12.07,2013-03-15 11:04:00,
2013-03-15 06:05:00,28.8,25.1,29.86,North,0,0.0,5.0,86,0.00,,OVC012,0.00,VWS V12.07,2013-03-15 11:05:00,
2013-03-15 06:06:00,28.7,25.0,29.86,North,0,1.0,5.0,86,0.00,,OVC012,0.00,VWS V12.07,2013-03-15 11:06:00,
2013-03-15 06:09:00,28.7,25.0,29.86,NNE,26,0.0,2.0,86,0.00,,OVC012,0.00,VWS V12.07,2013-03-15 11:09:00,
2013-03-15 06:10:00,28.7,25.3,29.86,NNE,25,0.0,2.0,87,0.00,,OVC012,0.00,VWS V12.07,2013-03-15 11:10:00,
2013-03-15 06:11:00,28.7,25.3,29.86,NNE,26,0.0,2.0,87,0.00,,OVC012,0.00,VWS V12.07,2013-03-15 11:11:00,
2013-03-15 06:14:00,28.5,25.1,29.87,NNW,331,1.0,9.0,87,0.00,,OVC012,0.00,VWS V12.07,2013-03-15 11:14:00,
2013-03-15 06:15:00,28.4,25.0,29.87,NNW,331,0.0,9.0,87,0.00,,OVC012,0.00,VWS V12.07,2013-03-15 11:15:00,
2013-03-15 06:16:00,28.4,25.0,29.87,NNW,331,0.0,9.0,87,0.00,,OVC012,0.00,VWS V12.07,2013-03-15 11:16:00,
2013-03-15 06:20:00,28.2,24.8,29.87,NE,49,1.0,2.0,87,0.00,,OVC012,0.00,VWS V12.07,2013-03-15 11:20:00,
2013-03-15 06:22:00,28.2,24.8,29.87,NE,49,0.0,2.0,87,0.00,,OVC012,0.00,VWS V12.07,2013-03-15 11:22:00,
2013-03-15 06:25:00,28.1,24.7,29.87,North,358,2.0,4.0,87,0.00,,OVC012,0.00,VWS V12.07,2013-03-15 11:25:00,
2013-03-15 06:26:00,28.1,24.7,29.87,North,350,1.0,4.0,87,0.00,,OVC012,0.00,VWS V12.07,2013-03-15 11:26:00,
2013-03-15 06:28:00,28.1,25.0,29.87,East,81,0.0,4.0,88,0.00,,OVC012,0.00,VWS V12.07,2013-03-15 11:28:00,
2013-03-15 06:30:00,27.9,24.8,29.88,NE,44,2.0,4.0,88,0.00,,OVC012,0.00,VWS V12.07,2013-03-15 11:30:00,
2013-03-15 06:32:00,27.9,24.8,29.88,NE,42,1.0,4.0,88,0.00,,OVC012,0.00,VWS V12.07,2013-03-15 11:32:00,
2013-03-15 06:33:00,27.8,24.7,29.88,West,264,3.0,4.0,88,0.00,,OVC012,0.00,VWS V12.07,2013-03-15 11:33:00,
2013-03-15 06:36:00,27.6,24.5,29.88,NNW,327,1.0,5.0,88,0.00,,OVC008,0.00,VWS V12.07,2013-03-15 11:36:00,
2013-03-15 06:38:00,27.6,24.5,29.88,NNW,327,1.0,5.0,88,0.00,,OVC008,0.00,VWS V12.07,2013-03-15 11:38:00,
2013-03-15 06:39:00,27.5,24.4,29.88,NNE,23,3.0,5.0,88,0.00,,OVC008,0.00,VWS V12.07,2013-03-15 11:39:00,
2013-03-15 06:40:00,26.1,22.5,29.91,NE,47,1.0,7.0,86,0.00,,OVC008,0.00,VWS V12.07,2013-03-15 11:40:00,
2013-03-15 06:41:00,27.5,24.4,29.88,North,0,0.0,5.0,88,0.00,,OVC008,0.00,VWS V12.07,2013-03-15 11:41:00,
2013-03-15 06:43:00,27.3,24.2,29.88,NNW,339,3.0,6.0,88,0.00,,OVC008,0.00,VWS V12.07,2013-03-15 11:43:00,
2013-03-15 06:44:00,27.3,24.2,29.89,North,357,1.0,6.0,88,0.00,,OVC008,0.00,VWS V12.07,2013-03-15 11:44:00,
2013-03-15 06:46:00,27.2,24.1,29.89,NNE,26,3.0,6.0,88,0.00,,OVC008,0.00,VWS V12.07,2013-03-15 11:46:00,
2013-03-15 06:48:00,27.2,24.1,29.89,NNW,346,2.0,6.0,88,0.00,,OVC008,0.00,VWS V12.07,2013-03-15 11:48:00,
2013-03-15 06:49:00,27.2,24.1,29.89,NE,38,1.0,4.0,88,0.00,,OVC008,0.00,VWS V12.07,2013-03-15 11:49:00,
2013-03-15 06:50:00,25.8,21.9,29.91,North,6,2.0,5.0,85,0.00,,OVC008,0.00,VWS V12.07,2013-03-15 11:50:00,
2013-03-15 06:52:00,27.0,23.9,29.89,North,0,0.0,4.0,88,0.00,,OVC008,0.00,VWS V12.07,2013-03-15 11:52:00,
2013-03-15 06:53:00,27.0,23.9,29.89,North,0,0.0,4.0,88,0.00,,OVC008,0.00,VWS V12.07,2013-03-15 11:53:00,
2013-03-15 06:54:00,27.0,23.9,29.89,North,0,1.0,4.0,88,0.00,,OVC008,0.00,VWS V12.07,2013-03-15 11:54:00,
2013-03-15 06:57:00,27.0,23.9,29.89,NNE,16,3.0,4.0,88,0.00,,OVC008,0.00,VWS V12.07,2013-03-15 11:57:00,
2013-03-15 06:58:00,26.9,23.8,29.89,NNW,345,1.0,0.0,88,0.00,,OVC008,0.00,VWS V12.07,2013-03-15 11:58:00,
2013-03-15 06:59:00,26.9,23.8,29.90,NNW,345,0.0,4.0,88,0.00,,OVC008,0.00,VWS V12.07,2013-03-15 11:59:00,
2013-03-15 07:00:00,25.6,21.7,29.92,NNE,27,1.0,6.0,85,0.00,,OVC008,0.00,VWS V12.07,2013-03-15 12:00:00,
2013-03-15 07:02:00,26.9,23.8,29.90,North,8,3.0,5.0,88,0.00,,OVC008,0.00,VWS V12.07,2013-03-15 12:02:00,
2013-03-15 07:03:00,26.9,23.8,29.90,NNW,328,2.0,0.0,88,0.00,,OVC008,0.00,VWS V12.07,2013-03-15 12:03:00,
2013-03-15 07:04:00,26.9,23.6,29.90,North,8,2.0,5.0,87,0.00,,OVC008,0.00,VWS V12.07,2013-03-15 12:04:00,
2013-03-15 07:07:00,26.7,23.4,29.90,NE,49,0.0,5.0,87,0.00,,OVC008,0.00,VWS V12.07,2013-03-15 12:07:00,
2013-03-15 07:09:00,26.7,23.4,29.90,North,4,1.0,6.0,87,0.00,,OVC008,0.00,VWS V12.07,2013-03-15 12:09:00,
2013-03-15 07:10:00,26.7,23.4,29.90,North,4,0.0,6.0,87,0.00,,OVC008,0.00,VWS V12.07,2013-03-15 12:10:00,
2013-03-15 07:13:00,26.6,23.3,29.90,North,0,0.0,6.0,87,0.00,,OVC008,0.00,VWS V12.07,2013-03-15 12:13:00,
2013-03-15 07:14:00,26.6,23.3,29.91,North,0,0.0,6.0,87,0.00,,OVC008,0.00,VWS V12.07,2013-03-15 12:14:00,
2013-03-15 07:15:00,26.6,23.3,29.91,NNE,23,2.0,6.0,87,0.00,,OVC008,0.00,VWS V12.07,2013-03-15 12:15:00,
2013-03-15 07:18:00,26.6,23.3,29.91,NE,39,3.0,6.0,87,0.00,,OVC008,0.00,VWS V12.07,2013-03-15 12:18:00,
2013-03-15 07:20:00,26.4,23.1,29.91,NNE,27,0.0,7.0,87,0.00,,OVC008,0.00,VWS V12.07,2013-03-15 12:20:00,
2013-03-15 07:24:00,26.3,22.7,29.91,NE,36,3.0,7.0,86,0.00,,OVC008,0.00,VWS V12.07,2013-03-15 12:24:00,
2013-03-15 07:25:00,26.1,22.5,29.91,NE,47,3.0,7.0,86,0.00,,OVC008,0.00,VWS V12.07,2013-03-15 12:25:00,
2013-03-15 07:26:00,26.1,22.5,29.91,North,358,0.0,7.0,86,0.00,,OVC008,0.00,VWS V12.07,2013-03-15 12:26:00,
2013-03-15 07:29:00,26.0,22.4,29.91,North,6,0.0,5.0,86,0.00,,OVC008,0.00,VWS V12.07,2013-03-15 12:29:00,
2013-03-15 07:30:00,26.0,22.4,29.91,North,6,1.0,5.0,86,0.00,,OVC008,0.00,VWS V12.07,2013-03-15 12:30:00,
2013-03-15 07:32:00,25.8,22.2,29.91,North,358,0.0,5.0,86,0.00,,OVC008,0.00,VWS V12.07,2013-03-15 12:32:00,
2013-03-15 07:34:00,25.8,22.2,29.91,NNE,18,2.0,5.0,86,0.00,,OVC008,0.00,VWS V12.07,2013-03-15 12:34:00,
2013-03-15 07:35:00,25.8,21.9,29.91,North,6,2.0,5.0,85,0.00,,OVC008,0.00,VWS V12.07,2013-03-15 12:35:00,
2013-03-15 07:37:00,25.7,21.8,29.91,NNW,346,2.0,6.0,85,0.00,,OVC008,0.00,VWS V12.07,2013-03-15 12:37:00,
2013-03-15 07:39:00,25.7,21.8,29.91,NNW,347,1.0,6.0,85,0.00,,OVC008,0.00,VWS V12.07,2013-03-15 12:39:00,
2013-03-15 07:40:00,25.7,21.8,29.91,NNW,347,1.0,6.0,85,0.00,,OVC008,0.00,VWS V12.07,2013-03-15 12:40:00,
2013-03-15 07:42:00,25.7,21.8,29.91,NNE,25,2.0,6.0,85,0.00,,OVC008,0.00,VWS V12.07,2013-03-15 12:42:00,
2013-03-15 07:45:00,25.6,21.7,29.92,NNE,27,1.0,6.0,85,0.00,,OVC008,0.00,VWS V12.07,2013-03-15 12:45:00,
2013-03-15 07:47:00,25.6,21.5,29.92,NE,53,2.0,3.0,84,0.00,,OVC008,0.00,VWS V12.07,2013-03-15 12:47:00,
2013-03-15 07:48:00,25.6,21.5,29.92,North,8,1.0,4.0,84,0.00,,OVC008,0.00,VWS V12.07,2013-03-15 12:48:00,
2013-03-15 07:50:00,25.6,21.5,29.92,North,358,1.0,4.0,84,0.00,,OVC010,0.00,VWS V12.07,2013-03-15 12:50:00,
2013-03-15 07:51:00,25.6,21.5,29.92,North,358,1.0,4.0,84,0.00,,OVC010,0.00,VWS V12.07,2013-03-15 12:51:00,
2013-03-15 07:53:00,25.6,21.5,29.92,NNE,17,0.0,4.0,84,0.00,,OVC010,0.00,VWS V12.07,2013-03-15 12:53:00,
2013-03-15 07:56:00,25.6,21.5,29.92,NNE,17,2.0,4.0,84,0.00,,OVC010,0.00,VWS V12.07,2013-03-15 12:56:00,
2013-03-15 07:57:00,25.6,21.5,29.92,NNE,17,0.0,4.0,84,0.00,,OVC008,0.00,VWS V12.07,2013-03-15 12:57:00,
2013-03-15 07:58:00,25.6,21.5,29.92,NW,307,2.0,4.0,84,0.00,,OVC008,0.00,VWS V12.07,2013-03-15 12:58:00,
2013-03-15 08:00:00,24.5,19.5,29.93,North,0,0.0,8.0,81,0.00,,OVC012,0.00,VWS V12.07,2013-03-15 13:00:00,
2013-03-15 08:01:00,25.4,21.0,29.92,North,1,0.0,6.0,83,0.00,,OVC008,0.00,VWS V12.07,2013-03-15 13:01:00,
2013-03-15 08:02:00,25.4,21.0,29.92,NW,312,2.0,6.0,83,0.00,,OVC008,0.00,VWS V12.07,2013-03-15 13:02:00,
2013-03-15 08:03:00,25.4,21.0,29.92,NNW,328,1.0,6.0,83,0.00,,OVC008,0.00,VWS V12.07,2013-03-15 13:03:00,
2013-03-15 08:04:00,25.4,21.0,29.92,NNW,331,0.0,6.0,83,0.00,,OVC008,0.00,VWS V12.07,2013-03-15 13:04:00,
2013-03-15 08:06:00,25.4,21.0,29.92,NNE,13,1.0,6.0,83,0.00,,OVC008,0.00,VWS V12.07,2013-03-15 13:06:00,
2013-03-15 08:07:00,25.3,20.9,29.92,NNE,13,0.0,6.0,83,0.00,,OVC008,0.00,VWS V12.07,2013-03-15 13:07:00,
2013-03-15 08:09:00,25.3,20.9,29.92,North,0,0.0,6.0,83,0.00,,OVC010,0.00,VWS V12.07,2013-03-15 13:09:00,
2013-03-15 08:10:00,24.4,19.1,29.93,NNW,341,4.0,7.0,80,0.00,,OVC014,0.00,VWS V12.07,2013-03-15 13:10:00,
2013-03-15 08:12:00,25.3,20.9,29.92,NNE,25,3.0,5.0,83,0.00,,OVC010,0.00,VWS V12.07,2013-03-15 13:12:00,
2013-03-15 08:15:00,25.1,20.4,29.93,North,358,1.0,5.0,82,0.00,,OVC010,0.00,VWS V12.07,2013-03-15 13:15:00,
2013-03-15 08:17:00,25.1,20.1,29.93,North,0,2.0,7.0,81,0.00,,OVC008,0.00,VWS V12.07,2013-03-15 13:17:00,
2013-03-15 08:18:00,25.1,20.1,29.93,NE,56,2.0,7.0,81,0.00,,OVC008,0.00,VWS V12.07,2013-03-15 13:18:00,
2013-03-15 08:20:00,25.0,20.0,29.93,NNW,345,1.0,7.0,81,0.00,,OVC008,0.00,VWS V12.07,2013-03-15 13:20:00,
2013-03-15 08:23:00,25.0,20.0,29.93,ENE,67,1.0,7.0,81,0.00,,OVC010,0.00,VWS V12.07,2013-03-15 13:23:00,
2013-03-15 08:25:00,24.8,19.8,29.93,North,0,0.0,7.0,81,0.00,,OVC010,0.00,VWS V12.07,2013-03-15 13:25:00,
2013-03-15 08:28:00,24.8,19.8,29.93,North,356,4.0,7.0,81,0.00,,OVC010,0.00,VWS V12.07,2013-03-15 13:28:00,
2013-03-15 08:30:00,24.8,19.8,29.93,NE,49,4.0,5.0,81,0.00,,OVC010,0.00,VWS V12.07,2013-03-15 13:30:00,
2013-03-15 08:33:00,24.7,19.7,29.93,NNE,25,3.0,7.0,81,0.00,,OVC010,0.00,VWS V12.07,2013-03-15 13:33:00,
2013-03-15 08:35:00,24.7,19.7,29.93,NNW,330,3.0,3.0,81,0.00,,OVC012,0.00,VWS V12.07,2013-03-15 13:35:00,
2013-03-15 08:36:00,24.7,19.7,29.93,NNW,330,2.0,3.0,81,0.00,,OVC012,0.00,VWS V12.07,2013-03-15 13:36:00,
2013-03-15 08:39:00,24.7,19.7,29.93,NNW,347,3.0,7.0,81,0.00,,OVC012,0.00,VWS V12.07,2013-03-15 13:39:00,
2013-03-15 08:40:00,24.2,18.6,29.93,NNE,31,4.0,9.0,79,0.00,,OVC014,0.00,VWS V12.07,2013-03-15 13:40:00,
2013-03-15 08:41:00,24.5,19.5,29.93,NNW,348,0.0,7.0,81,0.00,,OVC012,0.00,VWS V12.07,2013-03-15 13:41:00,
2013-03-15 08:44:00,24.5,19.5,29.93,North,8,2.0,7.0,81,0.00,,OVC012,0.00,VWS V12.07,2013-03-15 13:44:00,
2013-03-15 08:46:00,24.5,19.5,29.93,North,356,4.0,8.0,81,0.00,,OVC012,0.00,VWS V12.07,2013-03-15 13:46:00,
2013-03-15 08:49:00,24.4,19.1,29.93,NW,314,4.0,8.0,80,0.00,,OVC012,0.00,VWS V12.07,2013-03-15 13:49:00,
2013-03-15 08:50:00,24.2,18.6,29.93,North,349,1.0,6.0,79,0.00,,OVC016,0.00,VWS V12.07,2013-03-15 13:50:00,
2013-03-15 08:51:00,24.4,19.1,29.93,North,1,2.0,6.0,80,0.00,,OVC014,0.00,VWS V12.07,2013-03-15 13:51:00,
2013-03-15 08:54:00,24.4,19.1,29.93,North,2,3.0,7.0,80,0.00,,OVC014,0.00,VWS V12.07,2013-03-15 13:54:00,
2013-03-15 08:56:00,24.2,18.9,29.93,WNW,296,4.0,7.0,80,0.00,,OVC014,0.00,VWS V12.07,2013-03-15 13:56:00,
2013-03-15 08:57:00,24.2,18.9,29.93,NNE,25,10.0,10.0,80,0.00,,OVC014,0.00,VWS V12.07,2013-03-15 13:57:00,
2013-03-15 08:59:00,24.2,18.9,29.93,NNE,15,0.0,10.0,80,0.00,,OVC014,0.00,VWS V12.07,2013-03-15 13:59:00,
2013-03-15 09:00:00,24.2,18.9,29.93,NNE,19,3.0,10.0,80,0.00,,OVC014,0.00,VWS V12.07,2013-03-15 14:00:00,
2013-03-15 09:02:00,24.2,18.9,29.93,North,0,1.0,10.0,80,0.00,,OVC014,0.00,VWS V12.07,2013-03-15 14:02:00,
2013-03-15 09:04:00,24.2,18.9,29.93,NNE,21,3.0,10.0,80,0.00,,OVC014,0.00,VWS V12.07,2013-03-15 14:04:00,
2013-03-15 09:05:00,24.2,18.9,29.93,North,358,1.0,10.0,80,0.00,,OVC014,0.00,VWS V12.07,2013-03-15 14:05:00,
2013-03-15 09:07:00,24.2,18.9,29.93,North,353,2.0,10.0,80,0.00,,OVC014,0.00,VWS V12.07,2013-03-15 14:07:00,
2013-03-15 09:09:00,24.2,18.9,29.93,NE,34,1.0,5.0,80,0.00,,OVC014,0.00,VWS V12.07,2013-03-15 14:09:00,
2013-03-15 09:10:00,24.2,18.9,29.93,NNE,14,2.0,5.0,80,0.00,,OVC014,0.00,VWS V12.07,2013-03-15 14:10:00,
2013-03-15 09:12:00,24.2,18.9,29.93,NNE,15,0.0,5.0,80,0.00,,OVC014,0.00,VWS V12.07,2013-03-15 14:12:00,
2013-03-15 09:13:00,24.2,18.9,29.93,NNE,15,1.0,0.0,80,0.00,,OVC014,0.00,VWS V12.07,2013-03-15 14:13:00,
2013-03-15 09:14:00,24.2,18.9,29.93,North,8,8.0,9.0,80,0.00,,OVC014,0.00,VWS V12.07,2013-03-15 14:14:00,
2013-03-15 09:15:00,24.2,18.9,29.93,NNE,21,2.0,9.0,80,0.00,,OVC014,0.00,VWS V12.07,2013-03-15 14:15:00,
2013-03-15 09:18:00,24.2,18.9,29.93,NE,38,2.0,6.0,80,0.00,,OVC014,0.00,VWS V12.07,2013-03-15 14:18:00,
2013-03-15 09:20:00,24.2,18.6,29.93,North,10,0.0,6.0,79,0.00,,OVC014,0.00,VWS V12.07,2013-03-15 14:20:00,
2013-03-15 09:23:00,24.2,18.6,29.93,NW,309,4.0,9.0,79,0.00,,OVC014,0.00,VWS V12.07,2013-03-15 14:23:00,
2013-03-15 09:25:00,24.2,18.6,29.93,NNE,27,3.0,9.0,79,0.00,,OVC014,0.00,VWS V12.07,2013-03-15 14:25:00,
2013-03-15 09:28:00,24.2,18.6,29.93,NNE,33,4.0,6.0,79,0.00,,OVC014,0.00,VWS V12.07,2013-03-15 14:28:00,
2013-03-15 09:30:00,24.2,18.6,29.93,NNW,346,0.0,6.0,79,0.00,,OVC014,0.00,VWS V12.07,2013-03-15 14:30:00,
2013-03-15 09:31:00,24.2,18.6,29.93,NNW,348,2.0,6.0,79,0.00,,OVC014,0.00,VWS V12.07,2013-03-15 14:31:00,
2013-03-15 09:33:00,24.2,18.6,29.93,NE,37,2.0,6.0,79,0.00,,OVC014,0.00,VWS V12.07,2013-03-15 14:33:00,
2013-03-15 09:34:00,24.2,18.6,29.93,NW,307,3.0,6.0,79,0.00,,OVC014,0.00,VWS V12.07,2013-03-15 14:34:00,
2013-03-15 09:35:00,24.2,18.6,29.93,North,349,2.0,6.0,79,0.00,,OVC014,0.00,VWS V12.07,2013-03-15 14:35:00,
2013-03-15 09:36:00,24.2,18.6,29.93,North,349,1.0,6.0,79,0.00,,OVC014,0.00,VWS V12.07,2013-03-15 14:36:00,
2013-03-15 09:38:00,24.2,18.6,29.93,NNW,342,0.0,6.0,79,0.00,,OVC016,0.00,VWS V12.07,2013-03-15 14:38:00,
2013-03-15 09:39:00,24.2,18.3,29.93,North,3,0.0,4.0,78,0.00,,OVC016,0.00,VWS V12.07,2013-03-15 14:39:00,
2013-03-15 09:40:00,24.2,18.3,29.93,NNE,24,1.0,4.0,78,0.00,,OVC016,0.00,VWS V12.07,2013-03-15 14:40:00,
2013-03-15 09:42:00,24.2,18.3,29.93,NNE,23,0.0,4.0,78,0.00,,OVC016,0.00,VWS V12.07,2013-03-15 14:42:00,
2013-03-15 09:43:00,24.2,18.3,29.93,NNW,342,1.0,4.0,78,0.00,,OVC016,0.00,VWS V12.07,2013-03-15 14:43:00,
2013-03-15 09:45:00,24.2,18.0,29.93,NNW,343,1.0,4.0,77,0.00,,OVC016,0.00,VWS V12.07,2013-03-15 14:45:00,
2013-03-15 09:46:00,24.2,18.3,29.93,North,352,2.0,4.0,78,0.00,,OVC016,0.00,VWS V12.07,2013-03-15 14:46:00,
2013-03-15 09:47:00,24.2,18.0,29.93,North,355,5.0,5.0,77,0.00,,OVC016,0.00,VWS V12.07,2013-03-15 14:47:00,
2013-03-15 09:49:00,24.2,18.0,29.93,North,11,4.0,6.0,77,0.00,,OVC016,0.00,VWS V12.07,2013-03-15 14:49:00,
2013-03-15 09:50:00,24.2,18.0,29.93,North,2,1.0,6.0,77,0.00,,OVC016,0.00,VWS V12.07,2013-03-15 14:50:00,
2013-03-15 09:51:00,24.2,18.0,29.93,NW,321,4.0,6.0,77,0.00,,OVC016,0.00,VWS V12.07,2013-03-15 14:51:00,
2013-03-15 09:53:00,24.2,17.7,29.93,NNW,339,0.0,6.0,76,0.00,,OVC016,0.00,VWS V12.07,2013-03-15 14:53:00,
2013-03-15 09:55:00,24.2,17.7,29.93,NE,56,3.0,6.0,76,0.00,,OVC016,0.00,VWS V12.07,2013-03-15 14:55:00,
2013-03-15 09:57:00,24.2,17.7,29.93,NNE,30,0.0,2.0,76,0.00,,OVC014,0.00,VWS V12.07,2013-03-15 14:57:00,
2013-03-15 09:58:00,24.2,17.7,29.93,NNE,30,1.0,2.0,76,0.00,,OVC014,0.00,VWS V12.07,2013-03-15 14:58:00,
2013-03-15 10:00:00,24.4,17.9,29.93,NE,34,1.0,2.0,76,0.00,,OVC016,0.00,VWS V12.07,2013-03-15 15:00:00,
2013-03-15 10:01:00,24.4,17.9,29.93,North,0,1.0,2.0,76,0.00,,OVC016,0.00,VWS V12.07,2013-03-15 15:01:00,
2013-03-15 10:02:00,24.4,17.9,29.93,West,276,0.0,3.0,76,0.00,,OVC016,0.00,VWS V12.07,2013-03-15 15:02:00,
2013-03-15 10:03:00,24.4,17.9,29.93,North,4,4.0,4.0,76,0.00,,OVC016,0.00,VWS V12.07,2013-03-15 15:03:00,
2013-03-15 10:05:00,24.4,17.6,29.93,NW,304,5.0,5.0,75,0.00,,OVC016,0.00,VWS V12.07,2013-03-15 15:05:00,
2013-03-15 10:06:00,24.4,17.6,29.93,NW,309,0.0,5.0,75,0.00,,OVC016,0.00,VWS V12.07,2013-03-15 15:06:00,
2013-03-15 10:08:00,24.4,17.6,29.93,North,0,1.0,5.0,75,0.00,,OVC016,0.00,VWS V12.07,2013-03-15 15:08:00,
2013-03-15 10:10:00,25.3,17.2,29.93,ENE,59,3.0,12.0,71,0.00,,OVC016,0.00,VWS V12.07,2013-03-15 15:10:00,
2013-03-15 10:11:00,24.4,17.6,29.93,NNE,14,0.0,6.0,75,0.00,,OVC016,0.00,VWS V12.07,2013-03-15 15:11:00,
2013-03-15 10:13:00,24.5,17.7,29.93,NNE,14,1.0,6.0,75,0.00,,OVC016,0.00,VWS V12.07,2013-03-15 15:13:00,
2013-03-15 10:14:00,24.5,17.7,29.93,North,4,3.0,6.0,75,0.00,,OVC016,0.00,VWS V12.07,2013-03-15 15:14:00,
2013-03-15 10:16:00,24.7,17.6,29.93,North,11,0.0,6.0,74,0.00,,OVC016,0.00,VWS V12.07,2013-03-15 15:16:00,
2013-03-15 10:19:00,24.7,17.3,29.93,NNW,345,2.0,7.0,73,0.00,,OVC016,0.00,VWS V12.07,2013-03-15 15:19:00,
2013-03-15 10:20:00,27.2,17.0,29.92,NNW,330,2.0,7.0,65,0.00,,OVC016,0.00,VWS V12.07,2013-03-15 15:20:00,
2013-03-15 10:22:00,24.5,17.1,29.93,NE,35,2.0,8.0,73,0.00,,OVC016,0.00,VWS V12.07,2013-03-15 15:22:00,
2013-03-15 10:24:00,24.5,17.1,29.93,North,1,2.0,8.0,73,0.00,,OVC016,0.00,VWS V12.07,2013-03-15 15:24:00,
2013-03-15 10:27:00,24.7,17.6,29.93,NE,38,5.0,5.0,74,0.00,,OVC016,0.00,VWS V12.07,2013-03-15 15:27:00,
2013-03-15 10:29:00,24.5,17.1,29.92,North,356,3.0,5.0,73,0.00,,OVC016,0.00,VWS V12.07,2013-03-15 15:29:00,
2013-03-15 10:30:00,26.4,16.9,29.93,NW,325,0.0,11.0,67,0.00,,OVC016,0.00,VWS V12.07,2013-03-15 15:30:00,
2013-03-15 10:32:00,24.5,17.1,29.92,NE,54,2.0,9.0,73,0.00,,OVC016,0.00,VWS V12.07,2013-03-15 15:32:00,
2013-03-15 10:34:00,24.5,17.1,29.92,NNE,16,0.0,9.0,73,0.00,,OVC016,0.00,VWS V12.07,2013-03-15 15:34:00,
2013-03-15 10:37:00,24.7,17.3,29.92,NNW,329,1.0,9.0,73,0.00,,OVC016,0.00,VWS V12.07,2013-03-15 15:37:00,
2013-03-15 10:38:00,24.7,17.3,29.92,NNW,329,1.0,9.0,73,0.00,,OVC016,0.00,VWS V12.07,2013-03-15 15:38:00,
2013-03-15 10:39:00,24.7,17.3,29.92,NNE,32,2.0,4.0,73,0.00,,OVC016,0.00,VWS V12.07,2013-03-15 15:39:00,
2013-03-15 10:40:00,24.7,17.3,29.92,NNE,32,1.0,4.0,73,0.00,,OVC016,0.00,VWS V12.07,2013-03-15 15:40:00,
2013-03-15 10:42:00,24.8,17.1,29.92,NNE,25,2.0,4.0,72,0.00,,OVC016,0.00,VWS V12.07,2013-03-15 15:42:00,
2013-03-15 10:43:00,24.8,17.1,29.92,NNE,25,0.0,4.0,72,0.00,,OVC016,0.00,VWS V12.07,2013-03-15 15:43:00,
2013-03-15 10:44:00,25.0,17.6,29.93,ENE,70,2.0,4.0,73,0.00,,OVC016,0.00,VWS V12.07,2013-03-15 15:44:00,
2013-03-15 10:45:00,25.0,17.6,29.93,ENE,67,1.0,4.0,73,0.00,,OVC016,0.00,VWS V12.07,2013-03-15 15:45:00,
2013-03-15 10:48:00,25.1,16.7,29.93,NE,54,3.0,9.0,70,0.00,,OVC016,0.00,VWS V12.07,2013-03-15 15:48:00,
2013-03-15 10:50:00,25.1,16.7,29.93,NNE,15,4.0,12.0,70,0.00,,OVC016,0.00,VWS V12.07,2013-03-15 15:50:00,
2013-03-15 10:53:00,25.0,16.6,29.93,NE,37,4.0,12.0,70,0.00,,OVC016,0.00,VWS V12.07,2013-03-15 15:53:00,
2013-03-15 10:55:00,25.3,17.2,29.93,NE,48,2.0,12.0,71,0.00,,OVC016,0.00,VWS V12.07,2013-03-15 15:55:00,
2013-03-15 10:58:00,25.7,17.3,29.93,North,10,0.0,12.0,70,0.00,,OVC016,0.00,VWS V12.07,2013-03-15 15:58:00,
2013-03-15 10:59:00,25.8,17.4,29.93,NW,309,1.0,5.0,70,0.00,,OVC016,0.00,VWS V12.07,2013-03-15 15:59:00,
2013-03-15 11:00:00,26.1,17.0,29.92,North,349,0.0,7.0,68,0.00,,OVC016,0.00,VWS V12.07,2013-03-15 16:00:00,
2013-03-15 11:03:00,27.2,18.0,29.92,NNW,345,0.0,7.0,68,0.00,,OVC016,0.00,VWS V12.07,2013-03-15 16:03:00,
2013-03-15 11:04:00,27.3,17.8,29.92,NE,39,2.0,7.0,67,0.00,,OVC016,0.00,VWS V12.07,2013-03-15 16:04:00,
2013-03-15 11:06:00,27.2,16.6,29.92,North,352,0.0,7.0,64,0.00,,OVC016,0.00,VWS V12.07,2013-03-15 16:06:00,
2013-03-15 11:09:00,27.2,17.0,29.92,NE,46,5.0,11.0,65,0.00,,OVC016,0.00,VWS V12.07,2013-03-15 16:09:00,
2013-03-15 11:10:00,26.7,15.8,29.93,ENE,57,0.0,10.0,63,0.00,,OVC018,0.00,VWS V12.07,2013-03-15 16:10:00,
2013-03-15 11:11:00,27.0,16.8,29.92,NNE,30,2.0,11.0,65,0.00,,OVC016,0.00,VWS V12.07,2013-03-15 16:11:00,
2013-03-15 11:14:00,26.6,16.4,29.92,NW,308,0.0,11.0,65,0.00,,OVC016,0.00,VWS V12.07,2013-03-15 16:14:00,
2013-03-15 11:16:00,26.4,16.9,29.93,NNE,20,0.0,11.0,67,0.00,,OVC016,0.00,VWS V12.07,2013-03-15 16:16:00,
2013-03-15 11:17:00,26.4,16.6,29.93,NNE,30,9.0,11.0,66,0.00,,OVC016,0.00,VWS V12.07,2013-03-15 16:17:00,
2013-03-15 11:19:00,26.1,16.3,29.93,NNW,340,1.0,11.0,66,0.00,,OVC016,0.00,VWS V12.07,2013-03-15 16:19:00,
2013-03-15 11:20:00,27.5,15.8,29.92,NE,39,4.0,9.0,61,0.00,,BKN020,0.00,VWS V12.07,2013-03-15 16:20:00,
2013-03-15 11:21:00,26.1,16.3,29.93,North,0,1.0,11.0,66,0.00,,OVC016,0.00,VWS V12.07,2013-03-15 16:21:00,
2013-03-15 11:22:00,26.3,16.9,29.93,North,0,0.0,11.0,67,0.00,,OVC016,0.00,VWS V12.07,2013-03-15 16:22:00,
2013-03-15 11:24:00,26.9,17.4,29.93,North,349,2.0,9.0,67,0.00,,OVC016,0.00,VWS V12.07,2013-03-15 16:24:00,
2013-03-15 11:26:00,26.9,16.7,29.93,NNE,25,2.0,9.0,65,0.00,,OVC016,0.00,VWS V12.07,2013-03-15 16:26:00,
2013-03-15 11:27:00,26.9,16.7,29.93,NNE,25,1.0,9.0,65,0.00,,OVC016,0.00,VWS V12.07,2013-03-15 16:27:00,
2013-03-15 11:30:00,26.9,17.1,29.92,North,8,0.0,7.0,66,0.00,,OVC016,0.00,VWS V12.07,2013-03-15 16:30:00,
2013-03-15 11:32:00,27.2,17.7,29.92,North,4,5.0,7.0,67,0.00,,OVC016,0.00,VWS V12.07,2013-03-15 16:32:00,
2013-03-15 11:33:00,27.2,17.7,29.92,NE,36,5.0,7.0,67,0.00,,OVC016,0.00,VWS V12.07,2013-03-15 16:33:00,
2013-03-15 11:35:00,27.0,17.5,29.92,North,0,1.0,10.0,67,0.00,,OVC016,0.00,VWS V12.07,2013-03-15 16:35:00,
2013-03-15 11:37:00,27.0,16.8,29.92,North,354,1.0,10.0,65,0.00,,OVC016,0.00,VWS V12.07,2013-03-15 16:37:00,
2013-03-15 11:38:00,27.0,16.8,29.92,NNW,336,3.0,10.0,65,0.00,,OVC018,0.00,VWS V12.07,2013-03-15 16:38:00,
2013-03-15 11:40:00,27.0,16.5,29.92,NW,321,1.0,7.0,64,0.00,,OVC018,0.00,VWS V12.07,2013-03-15 16:40:00,
2013-03-15 11:43:00,26.9,16.4,29.92,NNW,345,1.0,7.0,64,0.00,,OVC018,0.00,VWS V12.07,2013-03-15 16:43:00,
2013-03-15 11:46:00,27.0,16.8,29.93,NNE,24,6.0,7.0,65,0.00,,OVC018,0.00,VWS V12.07,2013-03-15 16:46:00,
2013-03-15 11:48:00,27.0,17.2,29.93,NE,38,3.0,10.0,66,0.00,,OVC018,0.00,VWS V12.07,2013-03-15 16:48:00,
2013-03-15 11:49:00,27.0,16.5,29.93,NNE,22,3.0,10.0,64,0.00,,OVC018,0.00,VWS V12.07,2013-03-15 16:49:00,
2013-03-15 11:50:00,28.5,16.0,29.92,ENE,67,1.0,6.0,59,0.00,,BKN028,0.00,VWS V12.07,2013-03-15 16:50:00,
2013-03-15 11:51:00,26.9,16.7,29.93,NNW,333,0.0,10.0,65,0.00,,BKN020,0.00,VWS V12.07,2013-03-15 16:51:00,
2013-03-15 11:54:00,27.0,16.5,29.93,ENE,66,6.0,10.0,64,0.00,,BKN020,0.00,VWS V12.07,2013-03-15 16:54:00,
2013-03-15 11:56:00,26.9,16.0,29.93,NE,37,0.0,10.0,63,0.00,,BKN020,0.00,VWS V12.07,2013-03-15 16:56:00,
2013-03-15 11:59:00,27.6,17.0,29.93,WNW,299,1.0,3.0,64,0.00,,BKN020,0.00,VWS V12.07,2013-03-15 16:59:00,
2013-03-15 12:00:00,28.7,15.4,29.92,ENE,69,3.0,13.0,57,0.00,,BKN120,0.00,VWS V12.07,2013-03-15 17:00:00,
2013-03-15 12:01:00,28.1,16.0,29.92,NE,39,2.0,9.0,60,0.00,,BKN020,0.00,VWS V12.07,2013-03-15 17:01:00,
2013-03-15 12:04:00,27.8,16.1,29.92,NNE,20,7.0,9.0,61,0.00,,BKN020,0.00,VWS V12.07,2013-03-15 17:04:00,
2013-03-15 12:06:00,27.2,16.3,29.92,West,267,2.0,9.0,63,0.00,,BKN020,0.00,VWS V12.07,2013-03-15 17:06:00,
2013-03-15 12:08:00,27.0,15.7,29.92,NE,34,0.0,9.0,62,0.00,,BKN020,0.00,VWS V12.07,2013-03-15 17:08:00,
2013-03-15 12:09:00,27.2,15.9,29.92,North,6,2.0,5.0,62,0.00,,BKN020,0.00,VWS V12.07,2013-03-15 17:09:00,
2013-03-15 12:10:00,28.8,15.5,29.92,NW,318,2.0,9.0,57,0.00,,BKN028,0.00,VWS V12.07,2013-03-15 17:10:00,
2013-03-15 12:11:00,27.6,16.3,29.92,NNW,343,4.0,5.0,62,0.00,,BKN020,0.00,VWS V12.07,2013-03-15 17:11:00,
2013-03-15 12:13:00,27.6,15.6,29.92,West,275,1.0,5.0,60,0.00,,BKN020,0.00,VWS V12.07,2013-03-15 17:13:00,
2013-03-15 12:15:00,27.8,16.1,29.92,West,275,0.0,5.0,61,0.00,,BKN020,0.00,VWS V12.07,2013-03-15 17:15:00,
2013-03-15 12:17:00,27.9,16.2,29.92,WNW,288,1.0,5.0,61,0.00,,BKN020,0.00,VWS V12.07,2013-03-15 17:17:00,
2013-03-15 12:18:00,28.1,16.4,29.92,NNW,333,0.0,5.0,61,0.00,,BKN020,0.00,VWS V12.07,2013-03-15 17:18:00,
2013-03-15 12:20:00,28.2,15.7,29.92,North,358,0.0,9.0,59,0.00,,BKN020,0.00,VWS V12.07,2013-03-15 17:20:00,
2013-03-15 12:23:00,28.1,16.0,29.92,North,349,4.0,9.0,60,0.00,,BKN020,0.00,VWS V12.07,2013-03-15 17:23:00,
2013-03-15 12:25:00,27.9,15.4,29.92,NNE,21,4.0,9.0,59,0.00,,BKN020,0.00,VWS V12.07,2013-03-15 17:25:00,
2013-03-15 12:28:00,27.8,16.1,29.92,WNW,300,0.0,6.0,61,0.00,,BKN020,0.00,VWS V12.07,2013-03-15 17:28:00,
2013-03-15 12:30:00,28.2,16.5,29.92,WNW,300,0.0,6.0,61,0.00,,BKN020,0.00,VWS V12.07,2013-03-15 17:30:00,
2013-03-15 12:33:00,28.5,16.4,29.92,NE,41,5.0,6.0,60,0.00,,BKN020,0.00,VWS V12.07,2013-03-15 17:33:00,
2013-03-15 12:34:00,28.5,15.6,29.92,North,1,5.0,6.0,58,0.00,,BKN020,0.00,VWS V12.07,2013-03-15 17:34:00,
2013-03-15 12:35:00,28.5,16.4,29.92,NE,40,3.0,6.0,60,0.00,,BKN020,0.00,VWS V12.07,2013-03-15 17:35:00,
2013-03-15 12:38:00,27.8,15.0,29.92,NE,51,0.0,13.0,58,0.00,,BKN028,0.00,VWS V12.07,2013-03-15 17:38:00,
2013-03-15 12:39:00,27.8,15.7,29.92,NE,51,1.0,13.0,60,0.00,,BKN028,0.00,VWS V12.07,2013-03-15 17:39:00,
2013-03-15 12:40:00,28.5,14.8,29.91,NE,51,5.0,11.0,56,0.00,,BKN120,0.00,VWS V12.07,2013-03-15 17:40:00,
2013-03-15 12:41:00,28.2,16.1,29.92,NE,51,0.0,13.0,60,0.00,,BKN028,0.00,VWS V12.07,2013-03-15 17:41:00,
2013-03-15 12:42:00,28.7,16.2,29.92,NE,51,1.0,13.0,59,0.00,,BKN028,0.00,VWS V12.07,2013-03-15 17:42:00,
2013-03-15 12:44:00,28.7,16.2,29.92,West,261,1.0,13.0,59,0.00,,BKN028,0.00,VWS V12.07,2013-03-15 17:44:00,
2013-03-15 12:46:00,28.7,15.4,29.92,NE,45,4.0,13.0,57,0.00,,BKN028,0.00,VWS V12.07,2013-03-15 17:46:00,
2013-03-15 12:47:00,28.5,15.2,29.92,North,358,3.0,13.0,57,0.00,,BKN028,0.00,VWS V12.07,2013-03-15 17:47:00,
2013-03-15 12:49:00,28.5,15.2,29.92,NNW,327,0.0,13.0,57,0.00,,BKN028,0.00,VWS V12.07,2013-03-15 17:49:00,
2013-03-15 12:50:00,28.1,14.0,29.92,ENE,70,3.0,11.0,55,0.00,,SCT120,0.00,VWS V12.07,2013-03-15 17:50:00,
2013-03-15 12:51:00,29.0,16.1,29.92,NE,56,2.0,13.0,58,0.00,,BKN120,0.00,VWS V12.07,2013-03-15 17:51:00,
2013-03-15 12:53:00,29.0,15.7,29.92,NNE,27,2.0,13.0,57,0.00,,BKN120,0.00,VWS V12.07,2013-03-15 17:53:00,
2013-03-15 12:54:00,28.8,15.5,29.92,NNW,327,0.0,9.0,57,0.00,,BKN120,0.00,VWS V12.07,2013-03-15 17:54:00,
2013-03-15 12:57:00,29.0,16.1,29.92,West,281,2.0,9.0,58,0.00,,BKN028,0.00,VWS V12.07,2013-03-15 17:57:00,
2013-03-15 12:58:00,29.0,15.7,29.92,West,278,2.0,3.0,57,0.00,,BKN028,0.00,VWS V12.07,2013-03-15 17:58:00,
2013-03-15 12:59:00,29.1,16.2,29.91,West,278,0.0,3.0,58,0.00,,BKN120,0.00,VWS V12.07,2013-03-15 17:59:00,
2013-03-15 13:00:00,28.5,15.2,29.91,North,0,3.0,9.0,57,0.00,,SCT120,0.00,VWS V12.07,2013-03-15 18:00:00,
2013-03-15 13:02:00,29.3,15.1,29.91,NW,321,1.0,6.0,55,0.00,,BKN120,0.00,VWS V12.07,2013-03-15 18:02:00,
2013-03-15 13:03:00,29.1,14.5,29.91,NE,36,2.0,6.0,54,0.00,,BKN120,0.00,VWS V12.07,2013-03-15 18:03:00,
2013-03-15 13:04:00,29.3,15.6,29.91,North,358,3.0,6.0,56,0.00,,BKN120,0.00,VWS V12.07,2013-03-15 18:04:00,
2013-03-15 13:05:00,29.3,15.6,29.91,NE,46,2.0,6.0,56,0.00,,BKN120,0.00,VWS V12.07,2013-03-15 18:05:00,
2013-03-15 13:07:00,29.4,14.8,29.91,NNW,347,2.0,6.0,54,0.00,,BKN120,0.00,VWS V12.07,2013-03-15 18:07:00,
2013-03-15 13:08:00,29.3,14.7,29.91,NE,49,3.0,6.0,54,0.00,,BKN120,0.00,VWS V12.07,2013-03-15 18:08:00,
2013-03-15 13:10:00,29.3,15.6,29.91,NE,55,0.0,5.0,56,0.00,,BKN120,0.00,VWS V12.07,2013-03-15 18:10:00,
2013-03-15 13:13:00,29.4,14.8,29.91,NNE,32,1.0,11.0,54,0.00,,BKN120,0.00,VWS V12.07,2013-03-15 18:13:00,
2013-03-15 13:14:00,29.3,14.7,29.91,WNW,296,1.0,11.0,54,0.00,,BKN120,0.00,VWS V12.07,2013-03-15 18:14:00,
2013-03-15 13:15:00,29.0,14.4,29.91,NNE,13,5.0,11.0,54,0.00,,BKN120,0.00,VWS V12.07,2013-03-15 18:15:00,
2013-03-15 13:18:00,29.0,14.9,29.91,North,353,1.0,11.0,55,0.00,,BKN120,0.00,VWS V12.07,2013-03-15 18:18:00,
2013-03-15 13:19:00,29.0,14.9,29.91,North,353,0.0,0.0,55,0.00,,BKN120,0.00,VWS V12.07,2013-03-15 18:19:00,
2013-03-15 13:20:00,29.1,15.0,29.91,NNW,333,2.0,7.0,55,0.00,,BKN120,0.00,VWS V12.07,2013-03-15 18:20:00,
2013-03-15 13:23:00,28.7,14.6,29.91,NNE,32,4.0,11.0,55,0.00,,BKN120,0.00,VWS V12.07,2013-03-15 18:23:00,
2013-03-15 13:24:00,28.7,15.0,29.91,NNE,18,2.0,11.0,56,0.00,,BKN120,0.00,VWS V12.07,2013-03-15 18:24:00,
2013-03-15 13:25:00,28.5,14.0,29.91,NNE,21,4.0,11.0,54,0.00,,BKN120,0.00,VWS V12.07,2013-03-15 18:25:00,
2013-03-15 13:27:00,28.4,13.9,29.91,North,0,4.0,11.0,54,0.00,,BKN120,0.00,VWS V12.07,2013-03-15 18:27:00,
2013-03-15 13:29:00,28.4,15.1,29.91,NNE,24,0.0,11.0,57,0.00,,BKN120,0.00,VWS V12.07,2013-03-15 18:29:00,
2013-03-15 13:30:00,28.5,14.8,29.90,North,1,0.0,7.0,56,0.00,,SCT090,0.00,VWS V12.07,2013-03-15 18:30:00,
2013-03-15 13:32:00,28.4,14.3,29.92,NNE,32,3.0,9.0,55,0.00,,BKN120,0.00,VWS V12.07,2013-03-15 18:32:00,
2013-03-15 13:34:00,28.4,14.3,29.92,North,1,6.0,9.0,55,0.00,,BKN120,0.00,VWS V12.07,2013-03-15 18:34:00,
2013-03-15 13:37:00,27.9,14.6,29.92,North,11,2.0,11.0,57,0.00,,SCT120,0.00,VWS V12.07,2013-03-15 18:37:00,
2013-03-15 13:39:00,27.9,14.6,29.92,ENE,63,2.0,9.0,57,0.00,,SCT120,0.00,VWS V12.07,2013-03-15 18:39:00,
2013-03-15 13:40:00,28.1,15.2,29.92,ENE,70,0.0,9.0,58,0.00,,SCT120,0.00,VWS V12.07,2013-03-15 18:40:00,
2013-03-15 13:42:00,28.2,14.5,29.92,NNW,332,2.0,9.0,56,0.00,,SCT120,0.00,VWS V12.07,2013-03-15 18:42:00,
2013-03-15 13:43:00,28.4,14.3,29.92,ENE,57,3.0,9.0,55,0.00,,SCT120,0.00,VWS V12.07,2013-03-15 18:43:00,
2013-03-15 13:44:00,28.4,14.3,29.91,SW,218,0.0,9.0,55,0.00,,SCT120,0.00,VWS V12.07,2013-03-15 18:44:00,
2013-03-15 13:45:00,28.5,15.6,29.91,North,354,4.0,9.0,58,0.00,,SCT120,0.00,VWS V12.07,2013-03-15 18:45:00,
2013-03-15 13:47:00,28.7,14.2,29.91,NNW,347,0.0,9.0,54,0.00,,SCT120,0.00,VWS V12.07,2013-03-15 18:47:00,
2013-03-15 13:48:00,28.7,14.6,29.91,NNW,347,0.0,9.0,55,0.00,,SCT120,0.00,VWS V12.07,2013-03-15 18:48:00,
2013-03-15 13:49:00,28.8,15.5,29.91,NNE,25,2.0,5.0,57,0.00,,SCT120,0.00,VWS V12.07,2013-03-15 18:49:00,
2013-03-15 13:50:00,28.8,14.7,29.91,NNW,342,2.0,5.0,55,0.00,,SCT090,0.00,VWS V12.07,2013-03-15 18:50:00,
2013-03-15 13:53:00,28.7,14.6,29.91,NNE,25,2.0,5.0,55,0.00,,SCT090,0.00,VWS V12.07,2013-03-15 18:53:00,
2013-03-15 13:55:00,28.8,14.7,29.91,NNE,31,1.0,5.0,55,0.00,,SCT090,0.00,VWS V12.07,2013-03-15 18:55:00,
2013-03-15 13:58:00,28.8,15.1,29.91,North,358,0.0,5.0,56,0.00,,SCT090,0.00,VWS V12.07,2013-03-15 18:58:00,
2013-03-15 13:59:00,28.8,15.1,29.91,North,358,0.0,5.0,56,0.00,,SCT090,0.00,VWS V12.07,2013-03-15 18:59:00,
2013-03-15 14:00:00,28.8,15.1,29.91,North,358,1.0,5.0,56,0.00,,SCT090,0.00,VWS V12.07,2013-03-15 19:00:00,
2013-03-15 14:01:00,28.8,14.7,29.91,North,358,2.0,5.0,55,0.00,,SCT090,0.00,VWS V12.07,2013-03-15 19:01:00,
2013-03-15 14:03:00,29.0,15.3,29.91,North,358,1.0,5.0,56,0.00,,SCT090,0.00,VWS V12.07,2013-03-15 19:03:00,
2013-03-15 14:04:00,29.0,15.3,29.91,NE,52,1.0,5.0,56,0.00,,SCT090,0.00,VWS V12.07,2013-03-15 19:04:00,
2013-03-15 14:05:00,29.0,15.7,29.91,NE,48,3.0,5.0,57,0.00,,SCT090,0.00,VWS V12.07,2013-03-15 19:05:00,
2013-03-15 14:06:00,28.8,15.5,29.91,NE,49,5.0,5.0,57,0.00,,SCT090,0.00,VWS V12.07,2013-03-15 19:06:00,
2013-03-15 14:09:00,28.7,15.4,29.91,NNE,21,1.0,7.0,57,0.00,,SCT090,0.00,VWS V12.07,2013-03-15 19:09:00,
2013-03-15 14:10:00,27.8,14.2,29.89,ESE,120,1.0,6.0,56,0.00,,SCT032,0.00,VWS V12.07,2013-03-15 19:10:00,
2013-03-15 14:11:00,28.7,15.4,29.91,NE,34,1.0,7.0,57,0.00,,SCT090,0.00,VWS V12.07,2013-03-15 19:11:00,
2013-03-15 14:14:00,28.5,14.8,29.91,North,1,1.0,7.0,56,0.00,,SCT090,0.00,VWS V12.07,2013-03-15 19:14:00,
2013-03-15 14:17:00,28.5,14.4,29.90,North,3,2.0,7.0,55,0.00,,SCT090,0.00,VWS V12.07,2013-03-15 19:17:00,
2013-03-15 14:19:00,28.7,15.0,29.90,NE,39,3.0,7.0,56,0.00,,SCT090,0.00,VWS V12.07,2013-03-15 19:19:00,
2013-03-15 14:20:00,27.9,13.8,29.89,NNE,30,0.0,7.0,55,0.00,,SCT032,0.00,VWS V12.07,2013-03-15 19:20:00,
2013-03-15 14:22:00,28.7,15.4,29.90,NNE,32,0.0,9.0,57,0.00,,SCT090,0.00,VWS V12.07,2013-03-15 19:22:00,
2013-03-15 14:24:00,28.7,15.4,29.90,North,0,1.0,9.0,57,0.00,,SCT090,0.00,VWS V12.07,2013-03-15 19:24:00,
2013-03-15 14:25:00,28.7,15.4,29.90,North,8,1.0,9.0,57,0.00,,SCT090,0.00,VWS V12.07,2013-03-15 19:25:00,
2013-03-15 14:27:00,28.7,14.6,29.90,NE,37,1.0,9.0,55,0.00,,SCT090,0.00,VWS V12.07,2013-03-15 19:27:00,
2013-03-15 14:29:00,28.5,15.2,29.90,NNE,32,3.0,4.0,57,0.00,,SCT090,0.00,VWS V12.07,2013-03-15 19:29:00,
2013-03-15 14:30:00,28.4,14.7,29.90,NNE,15,2.0,4.0,56,0.00,,SCT090,0.00,VWS V12.07,2013-03-15 19:30:00,
2013-03-15 14:32:00,28.4,15.1,29.90,NNE,27,0.0,4.0,57,0.00,,SCT090,0.00,VWS V12.07,2013-03-15 19:32:00,
2013-03-15 14:33:00,28.4,15.1,29.90,North,8,3.0,4.0,57,0.00,,SCT090,0.00,VWS V12.07,2013-03-15 19:33:00,
2013-03-15 14:34:00,28.4,15.1,29.90,North,0,3.0,6.0,57,0.00,,BKN080,0.00,VWS V12.07,2013-03-15 19:34:00,
2013-03-15 14:35:00,28.4,14.7,29.90,NNE,15,0.0,6.0,56,0.00,,BKN080,0.00,VWS V12.07,2013-03-15 19:35:00,
2013-03-15 14:37:00,28.2,14.5,29.90,NNE,15,0.0,3.0,56,0.00,,BKN080,0.00,VWS V12.07,2013-03-15 19:37:00,
2013-03-15 14:38:00,28.2,14.5,29.90,ENE,67,3.0,3.0,56,0.00,,BKN080,0.00,VWS V12.07,2013-03-15 19:38:00,
2013-03-15 14:40:00,28.2,14.1,29.90,ESE,107,5.0,5.0,55,0.00,,BKN080,0.00,VWS V12.07,2013-03-15 19:40:00,
2013-03-15 14:42:00,28.1,14.0,29.90,ENE,75,1.0,6.0,55,0.00,,BKN080,0.00,VWS V12.07,2013-03-15 19:42:00,
2013-03-15 14:44:00,27.9,14.6,29.90,NNE,13,8.0,8.0,57,0.00,,BKN080,0.00,VWS V12.07,2013-03-15 19:44:00,
2013-03-15 14:45:00,27.9,14.2,29.89,ENE,70,2.0,8.0,56,0.00,,BKN080,0.00,VWS V12.07,2013-03-15 19:45:00,
2013-03-15 14:48:00,27.6,14.0,29.89,NE,47,3.0,5.0,56,0.00,,BKN080,0.00,VWS V12.07,2013-03-15 19:48:00,
2013-03-15 14:49:00,27.6,14.0,29.89,NW,311,2.0,6.0,56,0.00,,SCT032,0.00,VWS V12.07,2013-03-15 19:49:00,
2013-03-15 14:50:00,27.6,14.0,29.89,North,358,0.0,6.0,56,0.00,,SCT032,0.00,VWS V12.07,2013-03-15 19:50:00,
2013-03-15 14:53:00,27.8,14.6,29.89,ESE,122,3.0,6.0,57,0.00,,SCT032,0.00,VWS V12.07,2013-03-15 19:53:00,
2013-03-15 14:54:00,27.8,14.2,29.89,ESE,120,0.0,6.0,56,0.00,,SCT032,0.00,VWS V12.07,2013-03-15 19:54:00,
2013-03-15 14:55:00,27.8,14.6,29.89,NNE,26,3.0,6.0,57,0.00,,SCT032,0.00,VWS V12.07,2013-03-15 19:55:00,
2013-03-15 14:56:00,27.8,14.6,29.89,North,8,3.0,6.0,57,0.00,,SCT032,0.00,VWS V12.07,2013-03-15 19:56:00,
2013-03-15 14:58:00,27.8,14.2,29.89,NW,308,1.0,6.0,56,0.00,,SCT032,0.00,VWS V12.07,2013-03-15 19:58:00,
2013-03-15 14:59:00,27.8,14.6,29.89,NW,308,0.0,5.0,57,0.00,,SCT032,0.00,VWS V12.07,2013-03-15 19:59:00,
2013-03-15 15:00:00,27.9,15.1,29.89,NW,308,0.0,5.0,58,0.00,,SCT032,0.00,VWS V12.07,2013-03-15 20:00:00,
2013-03-15 15:02:00,27.9,14.6,29.89,NE,35,2.0,6.0,57,0.00,,SCT032,0.00,VWS V12.07,2013-03-15 20:02:00,
2013-03-15 15:03:00,27.9,14.2,29.89,NNE,24,6.0,7.0,56,0.00,,SCT032,0.00,VWS V12.07,2013-03-15 20:03:00,
2013-03-15 15:05:00,27.9,13.8,29.89,NNE,30,0.0,7.0,55,0.00,,SCT032,0.00,VWS V12.07,2013-03-15 20:05:00,
2013-03-15 15:06:00,27.9,14.2,29.89,NNE,30,0.0,7.0,56,0.00,,SCT032,0.00,VWS V12.07,2013-03-15 20:06:00,
2013-03-15 15:07:00,27.9,14.2,29.89,NNE,30,0.0,7.0,56,0.00,,SCT032,0.00,VWS V12.07,2013-03-15 20:07:00,
2013-03-15 15:08:00,27.9,13.8,29.89,NNE,29,5.0,7.0,55,0.00,,SCT032,0.00,VWS V12.07,2013-03-15 20:08:00,
2013-03-15 15:10:00,27.8,13.8,29.89,NNE,28,1.0,5.0,55,0.00,,SCT032,0.00,VWS V12.07,2013-03-15 20:10:00,
2013-03-15 15:11:00,27.8,13.8,29.89,NNE,28,3.0,5.0,55,0.00,,SCT032,0.00,VWS V12.07,2013-03-15 20:11:00,
2013-03-15 15:12:00,27.8,13.8,29.89,North,358,0.0,5.0,55,0.00,,SCT032,0.00,VWS V12.07,2013-03-15 20:12:00,
2013-03-15 15:13:00,27.9,13.4,29.89,North,358,0.0,5.0,54,0.00,,SCT032,0.00,VWS V12.07,2013-03-15 20:13:00,
2013-03-15 15:16:00,27.9,13.8,29.89,North,358,1.0,5.0,55,0.00,,SCT032,0.00,VWS V12.07,2013-03-15 20:16:00,
2013-03-15 15:17:00,27.9,13.4,29.89,NNE,22,2.0,6.0,54,0.00,,SCT032,0.00,VWS V12.07,2013-03-15 20:17:00,
2013-03-15 15:18:00,27.9,13.4,29.89,NE,38,3.0,6.0,54,0.00,,SCT032,0.00,VWS V12.07,2013-03-15 20:18:00,
2013-03-15 15:20:00,27.6,14.0,29.88,NE,37,1.0,10.0,56,0.00,,SCT070,0.00,VWS V12.07,2013-03-15 20:20:00,
2013-03-15 15:21:00,27.8,13.3,29.89,North,8,1.0,6.0,54,0.00,,SCT032,0.00,VWS V12.07,2013-03-15 20:21:00,
2013-03-15 15:22:00,27.8,13.8,29.89,NE,34,3.0,6.0,55,0.00,,SCT032,0.00,VWS V12.07,2013-03-15 20:22:00,
2013-03-15 15:23:00,27.6,13.6,29.89,NNE,18,1.0,6.0,55,0.00,,SCT032,0.00,VWS V12.07,2013-03-15 20:23:00,
2013-03-15 15:24:00,27.6,13.6,29.89,NE,51,0.0,6.0,55,0.00,,SCT032,0.00,VWS V12.07,2013-03-15 20:24:00,
2013-03-15 15:26:00,27.6,14.0,29.89,NNE,15,3.0,3.0,56,0.00,,SCT032,0.00,VWS V12.07,2013-03-15 20:26:00,
2013-03-15 15:27:00,27.6,13.6,29.89,NNE,32,0.0,5.0,55,0.00,,SCT032,0.00,VWS V12.07,2013-03-15 20:27:00,
2013-03-15 15:28:00,27.8,14.2,29.89,NNE,32,0.0,5.0,56,0.00,,SCT032,0.00,VWS V12.07,2013-03-15 20:28:00,
2013-03-15 15:29:00,27.8,14.2,29.89,NNE,32,1.0,5.0,56,0.00,,SCT032,0.00,VWS V12.07,2013-03-15 20:29:00,
2013-03-15 15:30:00,27.6,13.6,29.88,NNE,33,0.0,4.0,55,0.00,,SCT070,0.00,VWS V12.07,2013-03-15 20:30:00,
2013-03-15 15:31:00,27.8,14.2,29.89,North,0,2.0,5.0,56,0.00,,SCT032,0.00,VWS V12.07,2013-03-15 20:31:00,
2013-03-15 15:33:00,27.8,13.3,29.89,North,0,0.0,5.0,54,0.00,,SCT032,0.00,VWS V12.07,2013-03-15 20:33:00,
2013-03-15 15:34:00,27.8,13.3,29.89,North,0,1.0,5.0,54,0.00,,SCT032,0.00,VWS V12.07,2013-03-15 20:34:00,
2013-03-15 15:36:00,27.9,13.8,29.89,NE,39,1.0,4.0,55,0.00,,SCT080,0.00,VWS V12.07,2013-03-15 20:36:00,
2013-03-15 15:38:00,27.9,13.8,29.89,NE,51,1.0,4.0,55,0.00,,SCT080,0.00,VWS V12.07,2013-03-15 20:38:00,
2013-03-15 15:39:00,27.9,14.2,29.89,NE,51,0.0,4.0,56,0.00,,SCT080,0.00,VWS V12.07,2013-03-15 20:39:00,
2013-03-15 15:40:00,27.3,14.1,29.88,NNE,13,1.0,8.0,57,0.00,,SCT070,0.00,VWS V12.07,2013-03-15 20:40:00,
2013-03-15 15:41:00,28.1,14.4,29.89,NE,51,1.0,4.0,56,0.00,,SCT080,0.00,VWS V12.07,2013-03-15 20:41:00,
2013-03-15 15:43:00,28.1,14.4,29.89,NE,51,0.0,4.0,56,0.00,,SCT080,0.00,VWS V12.07,2013-03-15 20:43:00,
2013-03-15 15:44:00,28.2,14.9,29.89,North,6,3.0,4.0,57,0.00,,SCT080,0.00,VWS V12.07,2013-03-15 20:44:00,
2013-03-15 15:47:00,28.2,14.5,29.89,North,354,3.0,5.0,56,0.00,,SCT080,0.00,VWS V12.07,2013-03-15 20:47:00,
2013-03-15 15:48:00,28.2,14.1,29.89,North,6,2.0,5.0,55,0.00,,SCT080,0.00,VWS V12.07,2013-03-15 20:48:00,
2013-03-15 15:49:00,28.2,14.1,29.89,North,6,1.0,5.0,55,0.00,,SCT080,0.00,VWS V12.07,2013-03-15 20:49:00,
2013-03-15 15:50:00,28.2,14.1,29.89,ENE,60,1.0,6.0,55,0.00,,SCT080,0.00,VWS V12.07,2013-03-15 20:50:00,
2013-03-15 15:52:00,28.1,14.4,29.89,North,358,2.0,6.0,56,0.00,,SCT070,0.00,VWS V12.07,2013-03-15 20:52:00,
2013-03-15 15:54:00,28.1,14.0,29.89,North,4,1.0,6.0,55,0.00,,SCT070,0.00,VWS V12.07,2013-03-15 20:54:00,
2013-03-15 15:55:00,27.9,13.8,29.89,North,358,0.0,6.0,55,0.00,,SCT070,0.00,VWS V12.07,2013-03-15 20:55:00,
2013-03-15 15:57:00,27.9,13.8,29.89,NNW,340,1.0,5.0,55,0.00,,SCT080,0.00,VWS V12.07,2013-03-15 20:57:00,
2013-03-15 15:59:00,27.8,13.8,29.89,NNE,27,1.0,10.0,55,0.00,,SCT080,0.00,VWS V12.07,2013-03-15 20:59:00,
2013-03-15 16:00:00,27.8,13.8,29.88,NNE,13,3.0,10.0,55,0.00,,SCT080,0.00,VWS V12.07,2013-03-15 21:00:00,
2013-03-15 16:02:00,27.6,13.6,29.88,North,349,1.0,10.0,55,0.00,,SCT080,0.00,VWS V12.07,2013-03-15 21:02:00,
2013-03-15 16:04:00,27.6,13.6,29.88,NE,46,0.0,10.0,55,0.00,,SCT080,0.00,VWS V12.07,2013-03-15 21:04:00,
2013-03-15 16:05:00,27.6,14.0,29.88,NE,37,2.0,10.0,56,0.00,,SCT080,0.00,VWS V12.07,2013-03-15 21:05:00,
2013-03-15 16:07:00,27.6,14.4,29.88,NE,37,1.0,10.0,57,0.00,,SCT080,0.00,VWS V12.07,2013-03-15 21:07:00,
2013-03-15 16:09:00,27.6,14.0,29.88,NE,42,0.0,3.0,56,0.00,,SCT070,0.00,VWS V12.07,2013-03-15 21:09:00,
2013-03-15 16:10:00,27.6,13.6,29.88,NE,41,1.0,3.0,55,0.00,,SCT070,0.00,VWS V12.07,2013-03-15 21:10:00,
2013-03-15 16:12:00,27.6,14.0,29.88,NNE,19,2.0,3.0,56,0.00,,SCT070,0.00,VWS V12.07,2013-03-15 21:12:00,
2013-03-15 16:14:00,27.6,13.6,29.88,NNE,33,2.0,4.0,55,0.00,,SCT070,0.00,VWS V12.07,2013-03-15 21:14:00,
2013-03-15 16:15:00,27.6,13.6,29.88,NNE,33,0.0,4.0,55,0.00,,SCT070,0.00,VWS V12.07,2013-03-15 21:15:00,
2013-03-15 16:16:00,27.6,14.0,29.88,NNE,33,0.0,1.0,56,0.00,,SCT070,0.00,VWS V12.07,2013-03-15 21:16:00,
2013-03-15 16:17:00,27.6,14.0,29.88,NNE,30,5.0,8.0,56,0.00,,SCT070,0.00,VWS V12.07,2013-03-15 21:17:00,
2013-03-15 16:19:00,27.5,13.1,29.88,NNW,342,0.0,8.0,54,0.00,,SCT070,0.00,VWS V12.07,2013-03-15 21:19:00,
2013-03-15 16:20:00,27.5,13.5,29.88,North,11,0.0,8.0,55,0.00,,SCT070,0.00,VWS V12.07,2013-03-15 21:20:00,
2013-03-15 16:21:00,27.3,13.3,29.88,NNE,23,3.0,8.0,55,0.00,,SCT070,0.00,VWS V12.07,2013-03-15 21:21:00,
2013-03-15 16:22:00,27.3,13.3,29.88,NNE,15,0.0,8.0,55,0.00,,SCT070,0.00,VWS V12.07,2013-03-15 21:22:00,
2013-03-15 16:24:00,27.3,13.3,29.88,NNE,13,1.0,8.0,55,0.00,,SCT070,0.00,VWS V12.07,2013-03-15 21:24:00,
2013-03-15 16:26:00,27.2,13.6,29.88,North,356,1.0,1.0,56,0.00,,SCT070,0.00,VWS V12.07,2013-03-15 21:26:00,
2013-03-15 16:27:00,27.2,13.2,29.88,North,356,1.0,1.0,55,0.00,,SCT070,0.00,VWS V12.07,2013-03-15 21:27:00,
2013-03-15 16:28:00,27.2,13.6,29.88,North,356,0.0,2.0,56,0.00,,SCT070,0.00,VWS V12.07,2013-03-15 21:28:00,
2013-03-15 16:30:00,27.3,13.3,29.86,North,349,0.0,2.0,55,0.00,,SCT070,0.00,VWS V12.07,2013-03-15 21:30:00,
2013-03-15 16:31:00,27.3,13.7,29.86,North,349,0.0,2.0,56,0.00,,SCT070,0.00,VWS V12.07,2013-03-15 21:31:00,
2013-03-15 16:32:00,27.3,14.1,29.86,NE,34,5.0,5.0,57,0.00,,SCT070,0.00,VWS V12.07,2013-03-15 21:32:00,
2013-03-15 16:33:00,27.3,13.3,29.86,North,8,3.0,5.0,55,0.00,,SCT070,0.00,VWS V12.07,2013-03-15 21:33:00,
2013-03-15 16:35:00,27.5,13.5,29.86,North,8,0.0,5.0,55,0.00,,BKN095,0.00,VWS V12.07,2013-03-15 21:35:00,
2013-03-15 16:37:00,27.5,13.5,29.86,ENE,61,1.0,5.0,55,0.00,,BKN095,0.00,VWS V12.07,2013-03-15 21:37:00,
2013-03-15 16:38:00,27.5,13.5,29.86,NNE,33,3.0,5.0,55,0.00,,BKN095,0.00,VWS V12.07,2013-03-15 21:38:00,
2013-03-15 16:40:00,27.5,13.1,29.86,NE,45,3.0,4.0,54,0.00,,BKN095,0.00,VWS V12.07,2013-03-15 21:40:00,
2013-03-15 16:42:00,27.5,13.1,29.86,NNW,345,1.0,4.0,54,0.00,,BKN095,0.00,VWS V12.07,2013-03-15 21:42:00,
2013-03-15 16:43:00,27.3,12.9,29.86,NNW,345,2.0,4.0,54,0.00,,BKN095,0.00,VWS V12.07,2013-03-15 21:43:00,
2013-03-15 16:47:00,27.5,13.9,29.87,North,358,0.0,4.0,56,0.00,,BKN095,0.00,VWS V12.07,2013-03-15 21:47:00,
2013-03-15 16:48:00,27.5,13.9,29.87,NNW,338,2.0,4.0,56,0.00,,BKN095,0.00,VWS V12.07,2013-03-15 21:48:00,
2013-03-15 16:50:00,27.2,13.6,29.87,North,0,0.0,3.0,56,0.00,,OVC085,0.00,VWS V12.07,2013-03-15 21:50:00,
2013-03-15 16:52:00,27.3,13.3,29.87,NNE,30,1.0,4.0,55,0.00,,BKN085,0.00,VWS V12.07,2013-03-15 21:52:00,
2013-03-15 16:53:00,27.3,13.3,29.87,NNE,30,0.0,4.0,55,0.00,,BKN085,0.00,VWS V12.07,2013-03-15 21:53:00,
2013-03-15 16:54:00,27.5,13.5,29.87,NNE,30,1.0,4.0,55,0.00,,BKN085,0.00,VWS V12.07,2013-03-15 21:54:00,
2013-03-15 16:57:00,27.5,13.5,29.87,North,0,0.0,4.0,55,0.00,,BKN095,0.00,VWS V12.07,2013-03-15 21:57:00,
2013-03-15 16:58:00,27.5,13.9,29.87,North,0,0.0,4.0,56,0.00,,BKN095,0.00,VWS V12.07,2013-03-15 21:58:00,
2013-03-15 16:59:00,27.5,13.9,29.87,North,0,1.0,4.0,56,0.00,,BKN085,0.00,VWS V12.07,2013-03-15 21:59:00,
2013-03-15 17:03:00,27.3,12.9,29.87,North,349,0.0,5.0,54,0.00,,BKN085,0.00,VWS V12.07,2013-03-15 22:03:00,
2013-03-15 17:04:00,27.3,13.3,29.87,NNE,31,2.0,5.0,55,0.00,,BKN085,0.00,VWS V12.07,2013-03-15 22:04:00,
2013-03-15 17:08:00,27.2,13.2,29.87,NW,311,3.0,5.0,55,0.00,,BKN085,0.00,VWS V12.07,2013-03-15 22:08:00,
2013-03-15 17:09:00,27.2,13.2,29.87,NNW,343,1.0,3.0,55,0.00,,BKN085,0.00,VWS V12.07,2013-03-15 22:09:00,
2013-03-15 17:10:00,27.0,13.4,29.87,NE,35,0.0,5.0,56,0.00,,OVC085,0.00,VWS V12.07,2013-03-15 22:10:00,
2013-03-15 17:13:00,27.3,13.3,29.87,WSW,254,1.0,3.0,55,0.00,,BKN085,0.00,VWS V12.07,2013-03-15 22:13:00,
2013-03-15 17:14:00,27.3,13.3,29.87,WSW,254,0.0,3.0,55,0.00,,BKN085,0.00,VWS V12.07,2013-03-15 22:14:00,
2013-03-15 17:19:00,27.3,13.3,29.87,North,0,1.0,3.0,55,0.00,,BKN085,0.00,VWS V12.07,2013-03-15 22:19:00,
2013-03-15 17:20:00,27.3,13.3,29.87,NNE,18,1.0,3.0,55,0.00,,BKN085,0.00,VWS V12.07,2013-03-15 22:20:00,
2013-03-15 17:24:00,27.3,12.9,29.87,NNE,27,1.0,6.0,54,0.00,,BKN085,0.00,VWS V12.07,2013-03-15 22:24:00,
2013-03-15 17:25:00,27.2,12.8,29.87,NNE,27,1.0,6.0,54,0.00,,BKN085,0.00,VWS V12.07,2013-03-15 22:25:00,
2013-03-15 17:26:00,27.2,12.8,29.87,NNE,33,3.0,6.0,54,0.00,,BKN085,0.00,VWS V12.07,2013-03-15 22:26:00,
2013-03-15 17:29:00,27.2,12.8,29.87,North,0,1.0,0.0,54,0.00,,BKN085,0.00,VWS V12.07,2013-03-15 22:29:00,
2013-03-15 17:30:00,27.2,13.2,29.87,North,0,0.0,3.0,55,0.00,,BKN085,0.00,VWS V12.07,2013-03-15 22:30:00,
2013-03-15 17:32:00,27.2,13.2,29.87,North,0,0.0,3.0,55,0.00,,BKN085,0.00,VWS V12.07,2013-03-15 22:32:00,
2013-03-15 17:34:00,27.2,13.2,29.87,North,0,0.0,3.0,55,0.00,,BKN085,0.00,VWS V12.07,2013-03-15 22:34:00,
2013-03-15 17:35:00,27.2,13.6,29.87,North,0,0.0,3.0,56,0.00,,OVC085,0.00,VWS V12.07,2013-03-15 22:35:00,
2013-03-15 17:37:00,27.2,13.6,29.87,North,0,0.0,1.0,56,0.00,,OVC085,0.00,VWS V12.07,2013-03-15 22:37:00,
2013-03-15 17:39:00,27.2,13.6,29.87,North,0,1.0,1.0,56,0.00,,OVC085,0.00,VWS V12.07,2013-03-15 22:39:00,
2013-03-15 17:40:00,27.2,13.2,29.87,North,0,1.0,2.0,55,0.00,,OVC085,0.00,VWS V12.07,2013-03-15 22:40:00,
2013-03-15 17:42:00,27.2,12.8,29.87,NNE,21,0.0,3.0,54,0.00,,OVC085,0.00,VWS V12.07,2013-03-15 22:42:00,
2013-03-15 17:44:00,27.0,12.6,29.87,NE,40,2.0,3.0,54,0.00,,OVC085,0.00,VWS V12.07,2013-03-15 22:44:00,
2013-03-15 17:47:00,27.0,13.0,29.87,NNE,30,0.0,1.0,55,0.00,,OVC085,0.00,VWS V12.07,2013-03-15 22:47:00,
2013-03-15 17:48:00,27.0,13.0,29.87,NNE,30,0.0,1.0,55,0.00,,OVC085,0.00,VWS V12.07,2013-03-15 22:48:00,
2013-03-15 17:49:00,27.0,13.0,29.87,NNE,30,1.0,1.0,55,0.00,,OVC085,0.00,VWS V12.07,2013-03-15 22:49:00,
2013-03-15 17:50:00,26.0,14.4,29.88,North,349,1.0,3.0,61,0.00,,,0.00,VWS V12.07,2013-03-15 22:50:00,
2013-03-15 17:53:00,27.0,13.0,29.87,NE,35,0.0,5.0,55,0.00,,OVC085,0.00,VWS V12.07,2013-03-15 22:53:00,
2013-03-15 17:54:00,27.0,13.0,29.87,NE,35,0.0,5.0,55,0.00,,OVC085,0.00,VWS V12.07,2013-03-15 22:54:00,
2013-03-15 17:55:00,27.0,13.4,29.87,NE,35,0.0,5.0,56,0.00,,OVC085,0.00,VWS V12.07,2013-03-15 22:55:00,
2013-03-15 17:58:00,26.9,13.3,29.87,NNE,30,1.0,2.0,56,0.00,,OVC085,0.00,VWS V12.07,2013-03-15 22:58:00,
2013-03-15 17:59:00,26.9,13.3,29.87,NNE,30,0.0,2.0,56,0.00,,OVC085,0.00,VWS V12.07,2013-03-15 22:59:00,
2013-03-15 18:00:00,26.9,13.3,29.88,NNE,30,0.0,2.0,56,0.00,,OVC085,0.00,VWS V12.07,2013-03-15 23:00:00,
2013-03-15 18:03:00,26.9,12.9,29.88,North,11,1.0,4.0,55,0.00,,OVC085,0.00,VWS V12.07,2013-03-15 23:03:00,
2013-03-15 18:04:00,26.9,12.9,29.88,North,0,0.0,4.0,55,0.00,,OVC085,0.00,VWS V12.07,2013-03-15 23:04:00,
2013-03-15 18:06:00,26.9,12.9,29.88,North,0,0.0,4.0,55,0.00,,OVC085,0.00,VWS V12.07,2013-03-15 23:06:00,
2013-03-15 18:09:00,26.7,13.1,29.88,NNE,27,3.0,4.0,56,0.00,,OVC085,0.00,VWS V12.07,2013-03-15 23:09:00,
2013-03-15 18:10:00,26.7,13.1,29.88,NNE,27,1.0,4.0,56,0.00,,OVC085,0.00,VWS V12.07,2013-03-15 23:10:00,
2013-03-15 18:11:00,26.7,13.1,29.88,NNE,27,0.0,4.0,56,0.00,,OVC085,0.00,VWS V12.07,2013-03-15 23:11:00,
2013-03-15 18:14:00,26.7,13.5,29.88,NNE,21,0.0,4.0,57,0.00,,OVC085,0.00,VWS V12.07,2013-03-15 23:14:00,
2013-03-15 18:15:00,26.7,13.5,29.88,NNW,347,2.0,4.0,57,0.00,,OVC085,0.00,VWS V12.07,2013-03-15 23:15:00,
2013-03-15 18:16:00,26.7,13.9,29.88,North,358,2.0,6.0,58,0.00,,OVC085,0.00,VWS V12.07,2013-03-15 23:16:00,
2013-03-15 18:19:00,26.6,14.6,29.88,North,0,0.0,6.0,60,0.00,,OVC085,0.00,VWS V12.07,2013-03-15 23:19:00,
2013-03-15 18:20:00,24.2,13.8,29.88,NNW,335,3.0,11.0,64,0.00,,OVC047,0.00,VWS V12.07,2013-03-15 23:20:00,
2013-03-15 18:21:00,26.4,14.4,29.88,North,0,0.0,6.0,60,0.00,,OVC085,0.00,VWS V12.07,2013-03-15 23:21:00,
2013-03-15 18:24:00,26.4,14.4,29.88,NE,37,2.0,6.0,60,0.00,,OVC085,0.00,VWS V12.07,2013-03-15 23:24:00,
2013-03-15 18:26:00,26.3,14.3,29.88,NE,37,0.0,2.0,60,0.00,,OVC085,0.00,VWS V12.07,2013-03-15 23:26:00,
2013-03-15 18:27:00,26.3,14.3,29.88,NE,46,2.0,3.0,60,0.00,,OVC085,0.00,VWS V12.07,2013-03-15 23:27:00,
2013-03-15 18:29:00,26.1,14.1,29.88,NNW,337,0.0,3.0,60,0.00,,OVC085,0.00,VWS V12.07,2013-03-15 23:29:00,
2013-03-15 18:30:00,23.8,13.8,29.88,NNE,16,1.0,6.0,65,0.00,,OVC060,0.00,VWS V12.07,2013-03-15 23:30:00,
2013-03-15 18:31:00,26.1,14.5,29.88,North,358,0.0,3.0,61,0.00,,OVC085,0.00,VWS V12.07,2013-03-15 23:31:00,
2013-03-15 18:32:00,26.1,14.5,29.88,North,358,0.0,3.0,61,0.00,,OVC085,0.00,VWS V12.07,2013-03-15 23:32:00,
2013-03-15 18:33:00,26.0,14.8,29.88,North,7,1.0,3.0,62,0.00,,OVC085,0.00,VWS V12.07,2013-03-15 23:33:00,
2013-03-15 18:35:00,26.0,14.8,29.88,North,349,1.0,3.0,62,0.00,,,0.00,VWS V12.07,2013-03-15 23:35:00,
2013-03-15 18:36:00,26.0,14.8,29.88,North,349,1.0,3.0,62,0.00,,,0.00,VWS V12.07,2013-03-15 23:36:00,
2013-03-15 18:37:00,26.0,14.4,29.88,NW,309,2.0,2.0,61,0.00,,,0.00,VWS V12.07,2013-03-15 23:37:00,
2013-03-15 18:38:00,25.8,14.2,29.88,North,0,3.0,7.0,61,0.00,,,0.00,VWS V12.07,2013-03-15 23:38:00,
2013-03-15 18:40:00,25.8,14.2,29.88,North,8,1.0,7.0,61,0.00,,,0.00,VWS V12.07,2013-03-15 23:40:00,
2013-03-15 18:42:00,25.7,14.1,29.88,North,0,2.0,7.0,61,0.00,,,0.00,VWS V12.07,2013-03-15 23:42:00,
2013-03-15 18:43:00,25.6,14.0,29.88,NE,34,2.0,7.0,61,0.00,,,0.00,VWS V12.07,2013-03-15 23:43:00,
2013-03-15 18:44:00,25.4,13.8,29.88,NNE,16,2.0,7.0,61,0.00,,,0.00,VWS V12.07,2013-03-15 23:44:00,
2013-03-15 18:45:00,25.4,14.2,29.88,North,8,3.0,7.0,62,0.00,,,0.00,VWS V12.07,2013-03-15 23:45:00,
2013-03-15 18:47:00,25.3,13.8,29.88,North,8,0.0,12.0,61,0.00,,,0.00,VWS V12.07,2013-03-15 23:47:00,
2013-03-15 18:48:00,25.1,13.9,29.88,North,0,1.0,9.0,62,0.00,,OVC047,0.00,VWS V12.07,2013-03-15 23:48:00,
2013-03-15 18:49:00,25.1,14.3,29.88,NNE,14,2.0,9.0,63,0.00,,OVC047,0.00,VWS V12.07,2013-03-15 23:49:00,
2013-03-15 18:50:00,25.1,14.3,29.88,NNE,25,1.0,9.0,63,0.00,,OVC047,0.00,VWS V12.07,2013-03-15 23:50:00,
2013-03-15 18:52:00,25.0,14.2,29.88,North,0,2.0,9.0,63,0.00,,OVC047,0.00,VWS V12.07,2013-03-15 23:52:00,
2013-03-15 18:53:00,25.0,14.2,29.88,North,354,5.0,9.0,63,0.00,,OVC047,0.00,VWS V12.07,2013-03-15 23:53:00,
2013-03-15 18:55:00,24.8,14.4,29.88,NE,38,3.0,9.0,64,0.00,,OVC047,0.00,VWS V12.07,2013-03-15 23:55:00,
2013-03-15 18:57:00,24.7,13.9,29.88,NNW,332,1.0,9.0,63,0.00,,OVC047,0.00,VWS V12.07,2013-03-15 23:57:00,
2013-03-15 18:58:00,24.5,14.1,29.88,NNW,332,0.0,9.0,64,0.00,,OVC047,0.00,VWS V12.07,2013-03-15 23:58:00,
2013-03-15 19:00:00,24.5,14.1,29.88,North,0,1.0,6.0,64,0.00,,OVC047,0.00,VWS V12.07,2013-03-16 00:00:00,
2013-03-15 19:01:00,24.5,14.1,29.88,North,0,0.0,6.0,64,0.00,,OVC047,0.00,VWS V12.07,2013-03-16 00:01:00,
2013-03-15 19:02:00,24.4,14.0,29.88,North,9,2.0,6.0,64,0.00,,OVC047,0.00,VWS V12.07,2013-03-16 00:02:00,
2013-03-15 19:03:00,24.4,14.0,29.88,NNW,344,1.0,6.0,64,0.00,,OVC047,0.00,VWS V12.07,2013-03-16 00:03:00,
2013-03-15 19:05:00,24.2,13.8,29.88,North,3,3.0,4.0,64,0.00,,OVC047,0.00,VWS V12.07,2013-03-16 00:05:00,
2013-03-15 19:06:00,24.2,13.8,29.88,North,7,2.0,4.0,64,0.00,,OVC060,0.00,VWS V12.07,2013-03-16 00:06:00,
2013-03-15 19:07:00,24.1,13.7,29.88,North,7,0.0,4.0,64,0.00,,OVC060,0.00,VWS V12.07,2013-03-16 00:07:00,
2013-03-15 19:08:00,24.1,14.1,29.88,NNE,23,1.0,4.0,65,0.00,,OVC060,0.00,VWS V12.07,2013-03-16 00:08:00,
2013-03-15 19:10:00,23.9,13.9,29.88,North,0,1.0,5.0,65,0.00,,OVC060,0.00,VWS V12.07,2013-03-16 00:10:00,
2013-03-15 19:11:00,23.9,13.9,29.88,North,0,6.0,6.0,65,0.00,,OVC060,0.00,VWS V12.07,2013-03-16 00:11:00,
2013-03-15 19:12:00,23.9,13.9,29.88,North,6,2.0,6.0,65,0.00,,OVC060,0.00,VWS V12.07,2013-03-16 00:12:00,
2013-03-15 19:14:00,23.8,13.8,29.88,NNE,16,0.0,6.0,65,0.00,,OVC060,0.00,VWS V12.07,2013-03-16 00:14:00,
2013-03-15 19:16:00,23.8,13.8,29.88,North,5,6.0,7.0,65,0.00,,OVC060,0.00,VWS V12.07,2013-03-16 00:16:00,
2013-03-15 19:17:00,23.8,13.8,29.88,North,353,2.0,9.0,65,0.00,,OVC060,0.00,VWS V12.07,2013-03-16 00:17:00,
2013-03-15 19:20:00,23.6,13.9,29.88,North,4,0.0,9.0,66,0.00,,OVC060,0.00,VWS V12.07,2013-03-16 00:20:00,
2013-03-15 19:22:00,23.5,13.5,29.88,NNE,12,0.0,9.0,65,0.00,,OVC060,0.00,VWS V12.07,2013-03-16 00:22:00,
2013-03-15 19:23:00,23.5,13.8,29.88,North,2,2.0,9.0,66,0.00,,OVC060,0.00,VWS V12.07,2013-03-16 00:23:00,
2013-03-15 19:25:00,23.5,13.8,29.88,NNE,18,3.0,9.0,66,0.00,,OVC060,0.00,VWS V12.07,2013-03-16 00:25:00,
2013-03-15 19:27:00,23.3,14.0,29.88,NE,39,3.0,4.0,67,0.00,,OVC060,0.00,VWS V12.07,2013-03-16 00:27:00,
2013-03-15 19:28:00,23.3,14.0,29.88,North,10,5.0,10.0,67,0.00,,OVC060,0.00,VWS V12.07,2013-03-16 00:28:00,
2013-03-15 19:30:00,23.2,14.2,29.89,NNW,336,2.0,10.0,68,0.00,,OVC060,0.00,VWS V12.07,2013-03-16 00:30:00,
2013-03-15 19:32:00,23.2,13.9,29.89,East,81,2.0,10.0,67,0.00,,OVC060,0.00,VWS V12.07,2013-03-16 00:32:00,
2013-03-15 19:33:00,23.0,14.0,29.89,North,10,2.0,10.0,68,0.00,,OVC060,0.00,VWS V12.07,2013-03-16 00:33:00,
2013-03-15 19:37:00,22.9,13.9,29.89,NNE,20,5.0,10.0,68,0.00,,,0.00,VWS V12.07,2013-03-16 00:37:00,
2013-03-15 19:38:00,22.9,13.9,29.89,NNE,17,2.0,10.0,68,0.00,,,0.00,VWS V12.07,2013-03-16 00:38:00,
2013-03-15 19:40:00,19.4,14.5,29.91,NNE,32,0.0,7.0,81,0.00,,OVC037,0.00,VWS V12.07,2013-03-16 00:40:00,
2013-03-15 19:42:00,22.7,13.7,29.89,North,0,0.0,7.0,68,0.00,,,0.00,VWS V12.07,2013-03-16 00:42:00,
2013-03-15 19:43:00,22.7,14.1,29.89,ENE,61,3.0,7.0,69,0.00,,,0.00,VWS V12.07,2013-03-16 00:43:00,
2013-03-15 19:47:00,22.5,14.2,29.89,NE,52,0.0,1.0,70,0.00,,,0.00,VWS V12.07,2013-03-16 00:47:00,
2013-03-15 19:48:00,22.5,14.2,29.89,North,357,6.0,7.0,70,0.00,,,0.00,VWS V12.07,2013-03-16 00:48:00,
2013-03-15 19:49:00,22.4,14.1,29.89,NE,44,4.0,9.0,70,0.00,,OVC037,0.00,VWS V12.07,2013-03-16 00:49:00,
2013-03-15 19:50:00,18.8,14.2,29.92,NE,41,6.0,7.0,82,0.00,,,0.00,VWS V12.07,2013-03-16 00:50:00,
2013-03-15 19:53:00,22.1,13.5,29.89,NE,41,5.0,9.0,69,0.00,,OVC037,0.00,VWS V12.07,2013-03-16 00:53:00,
2013-03-15 19:54:00,21.9,13.3,29.89,NE,49,0.0,9.0,69,0.00,,OVC037,0.00,VWS V12.07,2013-03-16 00:54:00,
2013-03-15 19:58:00,21.8,13.5,29.89,NNE,18,4.0,9.0,70,0.00,,OVC037,0.00,VWS V12.07,2013-03-16 00:58:00,
2013-03-15 19:59:00,21.8,13.9,29.89,NE,43,2.0,4.0,71,0.00,,OVC037,0.00,VWS V12.07,2013-03-16 00:59:00,
2013-03-15 20:00:00,21.6,13.7,29.90,NE,55,5.0,7.0,71,0.00,,OVC037,0.00,VWS V12.07,2013-03-16 01:00:00,
2013-03-15 20:03:00,21.4,13.8,29.90,NE,40,2.0,11.0,72,0.00,,OVC037,0.00,VWS V12.07,2013-03-16 01:03:00,
2013-03-15 20:04:00,21.3,13.7,29.90,North,1,4.0,11.0,72,0.00,,OVC037,0.00,VWS V12.07,2013-03-16 01:04:00,
2013-03-15 20:05:00,21.1,13.8,29.90,NNE,22,1.0,11.0,73,0.00,,OVC037,0.00,VWS V12.07,2013-03-16 01:05:00,
2013-03-15 20:08:00,20.8,13.5,29.90,NE,34,4.0,11.0,73,0.00,,OVC037,0.00,VWS V12.07,2013-03-16 01:08:00,
2013-03-15 20:09:00,20.8,13.8,29.90,NE,56,0.0,7.0,74,0.00,,OVC037,0.00,VWS V12.07,2013-03-16 01:09:00,
2013-03-15 20:10:00,20.6,13.6,29.90,NNE,23,1.0,7.0,74,0.00,,OVC037,0.00,VWS V12.07,2013-03-16 01:10:00,
2013-03-15 20:13:00,20.3,14.0,29.90,North,3,2.0,9.0,76,0.00,,OVC037,0.00,VWS V12.07,2013-03-16 01:13:00,
2013-03-15 20:14:00,20.3,14.0,29.90,North,0,2.0,9.0,76,0.00,,OVC037,0.00,VWS V12.07,2013-03-16 01:14:00,
2013-03-15 20:15:00,20.2,13.9,29.91,North,0,1.0,9.0,76,0.00,,OVC037,0.00,VWS V12.07,2013-03-16 01:15:00,
2013-03-15 20:18:00,19.9,14.2,29.91,North,0,1.0,6.0,78,0.00,,OVC037,0.00,VWS V12.07,2013-03-16 01:18:00,
2013-03-15 20:19:00,19.9,14.4,29.91,NNE,14,2.0,6.0,79,0.00,,OVC037,0.00,VWS V12.07,2013-03-16 01:19:00,
2013-03-15 20:20:00,19.7,14.3,29.91,NE,49,6.0,7.0,79,0.00,,OVC037,0.00,VWS V12.07,2013-03-16 01:20:00,
2013-03-15 20:24:00,19.5,14.4,29.91,NNE,22,4.0,7.0,80,0.00,,OVC037,0.00,VWS V12.07,2013-03-16 01:24:00,
2013-03-15 20:26:00,19.4,14.5,29.91,NNE,31,0.0,7.0,81,0.00,,OVC037,0.00,VWS V12.07,2013-03-16 01:26:00,
2013-03-15 20:29:00,19.2,14.6,29.91,North,10,5.0,7.0,82,0.00,,OVC037,0.00,VWS V12.07,2013-03-16 01:29:00,
2013-03-15 20:30:00,17.0,13.5,29.92,NNE,17,2.0,4.0,86,0.00,,,0.00,VWS V12.07,2013-03-16 01:30:00,
2013-03-15 20:31:00,19.1,14.5,29.92,NNE,15,3.0,7.0,82,0.00,,OVC037,0.00,VWS V12.07,2013-03-16 01:31:00,
2013-03-15 20:34:00,18.9,14.3,29.92,NNE,21,3.0,7.0,82,0.00,,,0.00,VWS V12.07,2013-03-16 01:34:00,
2013-03-15 20:35:00,18.8,14.2,29.92,NW,325,4.0,7.0,82,0.00,,,0.00,VWS V12.07,2013-03-16 01:35:00,
2013-03-15 20:37:00,18.6,14.0,29.92,NNE,25,0.0,7.0,82,0.00,,,0.00,VWS V12.07,2013-03-16 01:37:00,
2013-03-15 20:39:00,18.6,14.3,29.92,North,0,2.0,6.0,83,0.00,,,0.00,VWS V12.07,2013-03-16 01:39:00,
2013-03-15 20:40:00,18.4,14.1,29.92,NNE,15,2.0,6.0,83,0.00,,,0.00,VWS V12.07,2013-03-16 01:40:00,
2013-03-15 20:42:00,18.4,14.1,29.92,North,1,4.0,6.0,83,0.00,,,0.00,VWS V12.07,2013-03-16 01:42:00,
2013-03-15 20:44:00,18.3,14.0,29.92,North,357,1.0,6.0,83,0.00,,,0.00,VWS V12.07,2013-03-16 01:44:00,
2013-03-15 20:46:00,18.3,14.0,29.92,NE,41,4.0,6.0,83,0.00,,,0.00,VWS V12.07,2013-03-16 01:46:00,
2013-03-15 20:47:00,18.1,14.1,29.92,NE,41,0.0,6.0,84,0.00,,,0.00,VWS V12.07,2013-03-16 01:47:00,
2013-03-15 20:49:00,18.0,14.0,29.92,NNW,337,1.0,6.0,84,0.00,,,0.00,VWS V12.07,2013-03-16 01:49:00,
2013-03-15 20:50:00,18.0,14.0,29.92,North,10,2.0,6.0,84,0.00,,,0.00,VWS V12.07,2013-03-16 01:50:00,
2013-03-15 20:51:00,18.0,14.0,29.92,NE,45,0.0,6.0,84,0.00,,,0.00,VWS V12.07,2013-03-16 01:51:00,
2013-03-15 20:52:00,17.8,13.5,29.92,NNW,345,4.0,9.0,83,0.00,,,0.00,VWS V12.07,2013-03-16 01:52:00,
2013-03-15 20:54:00,17.7,13.7,29.92,NNE,31,0.0,9.0,84,0.00,,,0.00,VWS V12.07,2013-03-16 01:54:00,
2013-03-15 20:55:00,17.7,13.7,29.92,NE,53,0.0,9.0,84,0.00,,,0.00,VWS V12.07,2013-03-16 01:55:00,
2013-03-15 20:57:00,17.5,13.5,29.92,NE,51,0.0,1.0,84,0.00,,,0.00,VWS V12.07,2013-03-16 01:57:00,
2013-03-15 20:58:00,17.5,13.5,29.92,NNE,18,0.0,2.0,84,0.00,,,0.00,VWS V12.07,2013-03-16 01:58:00,
2013-03-15 21:00:00,17.3,13.3,29.92,NE,41,1.0,10.0,84,0.00,,,0.00,VWS V12.07,2013-03-16 02:00:00,
2013-03-15 21:02:00,17.3,13.6,29.92,North,3,3.0,10.0,85,0.00,,,0.00,VWS V12.07,2013-03-16 02:02:00,
2013-03-15 21:03:00,17.3,13.6,29.92,NNE,27,3.0,10.0,85,0.00,,,0.00,VWS V12.07,2013-03-16 02:03:00,
2013-03-15 21:05:00,17.2,13.5,29.92,NNW,333,3.0,10.0,85,0.00,,,0.00,VWS V12.07,2013-03-16 02:05:00,
2013-03-15 21:07:00,17.2,13.5,29.92,NE,39,3.0,10.0,85,0.00,,,0.00,VWS V12.07,2013-03-16 02:07:00,
2013-03-15 21:08:00,17.2,13.5,29.92,North,0,2.0,4.0,85,0.00,,,0.00,VWS V12.07,2013-03-16 02:08:00,
2013-03-15 21:10:00,17.2,13.7,29.92,North,0,0.0,4.0,86,0.00,,,0.00,VWS V12.07,2013-03-16 02:10:00,
2013-03-15 21:11:00,17.2,13.7,29.92,North,0,1.0,4.0,86,0.00,,,0.00,VWS V12.07,2013-03-16 02:11:00,
2013-03-15 21:12:00,17.0,13.5,29.92,NNW,348,1.0,4.0,86,0.00,,,0.00,VWS V12.07,2013-03-16 02:12:00,
2013-03-15 21:14:00,17.0,13.5,29.92,NNE,22,2.0,4.0,86,0.00,,,0.00,VWS V12.07,2013-03-16 02:14:00,
2013-03-15 21:15:00,17.0,13.5,29.92,NNE,17,0.0,4.0,86,0.00,,,0.00,VWS V12.07,2013-03-16 02:15:00,
2013-03-15 21:16:00,17.0,13.5,29.92,NNE,17,0.0,4.0,86,0.00,,,0.01,VWS V12.07,2013-03-16 02:16:00,
2013-03-15 21:18:00,17.0,13.5,29.92,NNE,32,4.0,5.0,86,0.01,,,0.01,VWS V12.07,2013-03-16 02:18:00,
2013-03-15 21:19:00,16.9,13.4,29.92,NE,39,0.0,5.0,86,0.01,,,0.01,VWS V12.07,2013-03-16 02:19:00,
2013-03-15 21:20:00,16.9,13.4,29.92,ENE,61,1.0,5.0,86,0.01,,,0.01,VWS V12.07,2013-03-16 02:20:00,
2013-03-15 21:21:00,16.9,13.4,29.92,ENE,61,1.0,5.0,86,0.01,,,0.01,VWS V12.07,2013-03-16 02:21:00,
2013-03-15 21:23:00,16.9,13.4,29.92,ENE,61,0.0,5.0,86,0.01,,,0.01,VWS V12.07,2013-03-16 02:23:00,
2013-03-15 21:24:00,16.7,13.2,29.92,ENE,65,2.0,5.0,86,0.01,,,0.01,VWS V12.07,2013-03-16 02:24:00,
2013-03-15 21:25:00,16.7,13.2,29.92,North,1,2.0,5.0,86,0.01,,,0.01,VWS V12.07,2013-03-16 02:25:00,
2013-03-15 21:26:00,16.7,13.2,29.92,NNE,18,0.0,5.0,86,0.01,,,0.01,VWS V12.07,2013-03-16 02:26:00,
2013-03-15 21:28:00,16.7,13.2,29.92,NNE,18,1.0,2.0,86,0.01,,,0.01,VWS V12.07,2013-03-16 02:28:00,
2013-03-15 21:29:00,16.5,13.1,29.92,NE,53,1.0,4.0,86,0.01,,,0.01,VWS V12.07,2013-03-16 02:29:00,
2013-03-15 21:30:00,16.5,13.1,29.92,NNE,24,5.0,5.0,86,0.01,,,0.01,VWS V12.07,2013-03-16 02:30:00,
2013-03-15 21:31:00,16.4,12.7,29.92,North,9,3.0,6.0,85,0.01,,,0.01,VWS V12.07,2013-03-16 02:31:00,
2013-03-15 21:34:00,16.2,12.5,29.92,ENE,63,3.0,8.0,85,0.01,,,0.01,VWS V12.07,2013-03-16 02:34:00,
2013-03-15 21:36:00,15.9,11.9,29.92,East,84,2.0,8.0,84,0.01,,,0.01,VWS V12.07,2013-03-16 02:36:00,
2013-03-15 21:37:00,15.9,11.9,29.92,East,84,2.0,8.0,84,0.01,,,0.01,VWS V12.07,2013-03-16 02:37:00,
2013-03-15 21:39:00,15.7,11.7,29.92,NNE,18,5.0,8.0,84,0.01,,,0.01,VWS V12.07,2013-03-16 02:39:00,
2013-03-15 21:41:00,15.6,11.6,29.92,NNE,24,2.0,7.0,84,0.02,,,0.02,VWS V12.07,2013-03-16 02:41:00,
2013-03-15 21:42:00,15.6,11.6,29.92,NNE,14,4.0,7.0,84,0.02,,,0.02,VWS V12.07,2013-03-16 02:42:00,
2013-03-15 21:44:00,15.4,11.4,29.94,North,5,4.0,8.0,84,0.02,,,0.02,VWS V12.07,2013-03-16 02:44:00,
2013-03-15 21:47:00,15.4,11.4,29.94,NE,46,0.0,8.0,84,0.02,,,0.02,VWS V12.07,2013-03-16 02:47:00,
2013-03-15 21:49:00,15.2,11.2,29.94,NNE,25,2.0,4.0,84,0.02,,,0.02,VWS V12.07,2013-03-16 02:49:00,
2013-03-15 21:50:00,15.2,11.2,29.94,NNE,25,2.0,4.0,84,0.02,,,0.02,VWS V12.07,2013-03-16 02:50:00,
2013-03-15 21:52:00,15.2,11.2,29.94,NNE,28,2.0,4.0,84,0.02,,,0.02,VWS V12.07,2013-03-16 02:52:00,
2013-03-15 21:55:00,15.2,11.2,29.94,NE,45,1.0,5.0,84,0.02,,,0.02,VWS V12.07,2013-03-16 02:55:00,
2013-03-15 21:57:00,15.2,11.2,29.94,ENE,64,1.0,5.0,84,0.02,,,0.02,VWS V12.07,2013-03-16 02:57:00,
2013-03-15 21:58:00,15.2,11.2,29.94,NE,50,0.0,5.0,84,0.02,,,0.02,VWS V12.07,2013-03-16 02:58:00,
2013-03-15 22:00:00,15.1,11.4,29.93,NNE,23,2.0,6.0,85,0.02,,,0.02,VWS V12.07,2013-03-16 03:00:00,
2013-03-15 22:01:00,15.1,11.4,29.93,NNE,21,0.0,6.0,85,0.02,,,0.02,VWS V12.07,2013-03-16 03:01:00,
2013-03-15 22:02:00,15.1,11.4,29.93,NNE,21,0.0,6.0,85,0.02,,,0.02,VWS V12.07,2013-03-16 03:02:00,
2013-03-15 22:03:00,15.1,11.4,29.93,NNE,21,1.0,6.0,85,0.02,,,0.02,VWS V12.07,2013-03-16 03:03:00,
2013-03-15 22:05:00,15.1,11.4,29.93,North,6,1.0,6.0,85,0.02,,,0.02,VWS V12.07,2013-03-16 03:05:00,
2013-03-15 22:06:00,15.1,11.4,29.93,North,6,0.0,6.0,85,0.02,,,0.02,VWS V12.07,2013-03-16 03:06:00,
2013-03-15 22:07:00,15.1,11.4,29.93,NNE,27,5.0,6.0,85,0.02,,,0.02,VWS V12.07,2013-03-16 03:07:00,
2013-03-15 22:08:00,15.1,11.4,29.93,NNE,16,0.0,6.0,85,0.02,,,0.02,VWS V12.07,2013-03-16 03:08:00,
2013-03-15 22:10:00,13.8,10.4,29.94,NE,36,1.0,10.0,86,0.02,,,0.04,VWS V12.07,2013-03-16 03:10:00,
2013-03-15 22:11:00,14.9,11.2,29.93,NNE,17,1.0,6.0,85,0.03,,,0.03,VWS V12.07,2013-03-16 03:11:00,
2013-03-15 22:12:00,14.9,11.2,29.93,NNE,15,6.0,6.0,85,0.03,,,0.03,VWS V12.07,2013-03-16 03:12:00,
2013-03-15 22:13:00,14.9,11.2,29.93,ENE,60,2.0,6.0,85,0.03,,,0.03,VWS V12.07,2013-03-16 03:13:00,
2013-03-15 22:17:00,14.8,11.1,29.94,NNE,32,2.0,5.0,85,0.03,,,0.03,VWS V12.07,2013-03-16 03:17:00,
2013-03-15 22:18:00,14.6,10.9,29.94,ENE,60,1.0,5.0,85,0.03,,,0.03,VWS V12.07,2013-03-16 03:18:00,
2013-03-15 22:20:00,13.6,10.2,29.93,ENE,72,1.0,7.0,86,0.03,,,0.05,VWS V12.07,2013-03-16 03:20:00,
2013-03-15 22:22:00,14.4,10.5,29.94,North,4,2.0,6.0,84,0.03,,,0.03,VWS V12.07,2013-03-16 03:22:00,
2013-03-15 22:24:00,14.4,10.7,29.94,NNE,31,3.0,6.0,85,0.03,,,0.03,VWS V12.07,2013-03-16 03:24:00,
2013-03-15 22:27:00,14.3,10.6,29.94,NE,34,2.0,2.0,85,0.02,,,0.03,VWS V12.07,2013-03-16 03:27:00,
2013-03-15 22:29:00,14.3,10.6,29.94,NNE,32,3.0,6.0,85,0.02,,,0.03,VWS V12.07,2013-03-16 03:29:00,
2013-03-15 22:30:00,13.6,10.2,29.94,NNE,32,0.0,5.0,86,0.03,,,0.05,VWS V12.07,2013-03-16 03:30:00,
2013-03-15 22:32:00,14.1,10.4,29.94,NNE,14,1.0,7.0,85,0.02,,,0.03,VWS V12.07,2013-03-16 03:32:00,
2013-03-15 22:33:00,14.1,10.4,29.94,North,351,3.0,7.0,85,0.02,,,0.04,VWS V12.07,2013-03-16 03:33:00,
2013-03-15 22:34:00,14.1,10.4,29.94,NNE,30,1.0,7.0,85,0.03,,,0.04,VWS V12.07,2013-03-16 03:34:00,
2013-03-15 22:35:00,14.1,10.4,29.94,North,6,7.0,7.0,85,0.03,,,0.04,VWS V12.07,2013-03-16 03:35:00,
2013-03-15 22:37:00,14.0,10.3,29.94,NE,43,1.0,7.0,85,0.03,,,0.04,VWS V12.07,2013-03-16 03:37:00,
2013-03-15 22:38:00,14.0,10.3,29.94,ENE,57,2.0,7.0,85,0.03,,,0.04,VWS V12.07,2013-03-16 03:38:00,
2013-03-15 22:39:00,14.0,10.3,29.94,North,7,1.0,7.0,85,0.03,,,0.04,VWS V12.07,2013-03-16 03:39:00,
2013-03-15 22:40:00,14.0,10.3,29.94,NNE,29,0.0,7.0,85,0.03,,,0.04,VWS V12.07,2013-03-16 03:40:00,
2013-03-15 22:42:00,14.0,10.3,29.94,North,0,4.0,7.0,85,0.03,,,0.04,VWS V12.07,2013-03-16 03:42:00,
2013-03-15 22:43:00,14.0,10.3,29.94,North,8,1.0,7.0,85,0.03,,,0.04,VWS V12.07,2013-03-16 03:43:00,
2013-03-15 22:44:00,14.0,10.3,29.94,North,358,2.0,7.0,85,0.03,,,0.04,VWS V12.07,2013-03-16 03:44:00,
2013-03-15 22:45:00,14.0,10.3,29.94,North,0,3.0,7.0,85,0.03,,,0.04,VWS V12.07,2013-03-16 03:45:00,
2013-03-15 22:47:00,13.8,10.1,29.94,NNE,32,0.0,7.0,85,0.02,,,0.04,VWS V12.07,2013-03-16 03:47:00,
2013-03-15 22:49:00,13.8,10.1,29.94,NE,39,1.0,10.0,85,0.02,,,0.04,VWS V12.07,2013-03-16 03:49:00,
2013-03-15 22:50:00,13.1,9.2,29.93,North,7,5.0,7.0,84,0.03,,,0.06,VWS V12.07,2013-03-16 03:50:00,
2013-03-15 22:51:00,13.8,10.1,29.94,North,355,2.0,10.0,85,0.02,,,0.04,VWS V12.07,2013-03-16 03:51:00,
2013-03-15 22:53:00,13.8,10.4,29.94,NNE,30,2.0,10.0,86,0.02,,,0.04,VWS V12.07,2013-03-16 03:53:00,
2013-03-15 22:54:00,13.8,10.4,29.94,NE,46,2.0,10.0,86,0.02,,,0.04,VWS V12.07,2013-03-16 03:54:00,
2013-03-15 22:55:00,13.8,10.4,29.94,NE,52,1.0,10.0,86,0.02,,,0.04,VWS V12.07,2013-03-16 03:55:00,
2013-03-15 22:56:00,13.8,10.4,29.94,NNE,28,3.0,3.0,86,0.02,,,0.04,VWS V12.07,2013-03-16 03:56:00,
2013-03-15 22:58:00,13.6,10.2,29.94,NE,41,1.0,4.0,86,0.02,,,0.04,VWS V12.07,2013-03-16 03:58:00,
2013-03-15 22:59:00,13.6,10.2,29.93,NNE,22,3.0,4.0,86,0.02,,,0.05,VWS V12.07,2013-03-16 03:59:00,
2013-03-15 23:00:00,13.6,10.2,29.93,NE,40,3.0,4.0,86,0.02,,,0.05,VWS V12.07,2013-03-16 04:00:00,
2013-03-15 23:05:00,13.6,10.2,29.93,ENE,72,1.0,7.0,86,0.03,,,0.05,VWS V12.07,2013-03-16 04:05:00,
2013-03-15 23:06:00,13.6,10.2,29.93,ENE,76,1.0,2.0,86,0.03,,,0.05,VWS V12.07,2013-03-16 04:06:00,
2013-03-15 23:10:00,13.6,10.2,29.93,North,11,1.0,5.0,86,0.03,,,0.05,VWS V12.07,2013-03-16 04:10:00,
2013-03-15 23:11:00,13.6,10.2,29.93,North,11,0.0,5.0,86,0.03,,,0.05,VWS V12.07,2013-03-16 04:11:00,
2013-03-15 23:12:00,13.6,10.2,29.93,North,11,1.0,5.0,86,0.03,,,0.05,VWS V12.07,2013-03-16 04:12:00,
2013-03-15 23:15:00,13.6,10.2,29.94,NNE,32,0.0,0.0,86,0.03,,,0.05,VWS V12.07,2013-03-16 04:15:00,
2013-03-15 23:17:00,13.5,10.1,29.94,NE,34,0.0,4.0,86,0.02,,,0.05,VWS V12.07,2013-03-16 04:17:00,
2013-03-15 23:20:00,13.5,10.1,29.94,NNE,31,1.0,4.0,86,0.02,,,0.05,VWS V12.07,2013-03-16 04:20:00,
2013-03-15 23:22:00,13.5,10.1,29.94,NNE,32,0.0,4.0,86,0.02,,,0.05,VWS V12.07,2013-03-16 04:22:00,
2013-03-15 23:23:00,13.5,10.1,29.94,NNE,32,0.0,4.0,86,0.02,,,0.05,VWS V12.07,2013-03-16 04:23:00,
2013-03-15 23:25:00,13.5,10.1,29.94,North,8,2.0,5.0,86,0.03,,,0.06,VWS V12.07,2013-03-16 04:25:00,
2013-03-15 23:27:00,13.5,9.8,29.94,NW,309,2.0,5.0,85,0.03,,,0.06,VWS V12.07,2013-03-16 04:27:00,
2013-03-15 23:28:00,13.5,9.8,29.94,NNW,329,1.0,7.0,85,0.03,,,0.06,VWS V12.07,2013-03-16 04:28:00,
2013-03-15 23:30:00,12.4,8.5,29.94,NE,41,0.0,6.0,84,0.02,,,0.07,VWS V12.07,2013-03-16 04:30:00,
2013-03-15 23:31:00,13.3,9.4,29.93,ENE,60,2.0,7.0,84,0.03,,,0.06,VWS V12.07,2013-03-16 04:31:00,
2013-03-15 23:32:00,13.3,9.4,29.93,NNE,16,1.0,7.0,84,0.03,,,0.06,VWS V12.07,2013-03-16 04:32:00,
2013-03-15 23:33:00,13.1,9.2,29.93,NE,34,5.0,7.0,84,0.03,,,0.06,VWS V12.07,2013-03-16 04:33:00,
2013-03-15 23:37:00,12.9,9.0,29.93,NNE,13,3.0,5.0,84,0.02,,,0.06,VWS V12.07,2013-03-16 04:37:00,
2013-03-15 23:38:00,12.9,9.0,29.93,North,3,1.0,5.0,84,0.02,,,0.06,VWS V12.07,2013-03-16 04:38:00,
2013-03-15 23:40:00,12.1,8.2,29.94,North,0,1.0,5.0,84,0.02,,,0.07,VWS V12.07,2013-03-16 04:40:00,
2013-03-15 23:43:00,12.9,9.0,29.93,NE,44,2.0,5.0,84,0.02,,,0.06,VWS V12.07,2013-03-16 04:43:00,
2013-03-15 23:48:00,12.9,9.0,29.93,North,358,5.0,5.0,84,0.02,,,0.06,VWS V12.07,2013-03-16 04:48:00,
2013-03-15 23:49:00,12.8,8.9,29.93,ENE,57,1.0,5.0,84,0.02,,,0.06,VWS V12.07,2013-03-16 04:49:00,
2013-03-15 23:50:00,11.9,8.0,29.93,North,358,0.0,6.0,84,0.02,,,0.08,VWS V12.07,2013-03-16 04:50:00,
2013-03-15 23:53:00,12.8,8.9,29.93,NE,50,1.0,0.0,84,0.03,,,0.07,VWS V12.07,2013-03-16 04:53:00,
2013-03-15 23:54:00,12.8,8.9,29.93,NNE,29,2.0,5.0,84,0.03,,,0.07,VWS V12.07,2013-03-16 04:54:00,
2013-03-15 23:58:00,12.8,8.9,29.93,NNE,20,2.0,5.0,84,0.03,,,0.07,VWS V12.07,2013-03-16 04:58:00,
2013-03-15 23:59:00,12.8,8.9,29.93,NNE,13,0.0,5.0,84,0.03,,,0.07,VWS V12.07,2013-03-16 04:59:00,